GFSSE_prec_precacc24_114.txt.gz
Total_Precipitation_Accumulation
0.00 0.01 0.05 0.01 0.01 0.01 0.00 0.00 0.00 0.01 0.02 0.02 0.03 0.01 0.00 0.11 0.17 0.01 0.00 0.00 0.03 0.07 0.06 0.06 0.05 0.04 0.04 0.03 0.02 0.02 0.02 0.01 0.01 0.01 0.02 0.04 0.06 0.05 0.04 0.05 0.04 0.05 0.11
0.00 0.01 0.04 0.01 0.01 0.01 0.01 0.01 0.01 0.01 0.03 0.03 0.04 0.02 0.01 0.21 0.08 0.00 0.01 0.04 0.06 0.05 0.06 0.05 0.03 0.02 0.02 0.02 0.01 0.00 0.00 0.00 0.00 0.00 0.00 0.00 0.02 0.04 0.03 0.04 0.10 0.08 0.11
0.00 0.02 0.02 0.01 0.02 0.01 0.01 0.01 0.01 0.01 0.05 0.05 0.06 0.05 0.06 0.22 0.03 0.01 0.05 0.04 0.04 0.04 0.03 0.02 0.02 0.01 0.01 0.01 0.00 0.00 0.00 0.00 0.00 0.00 0.00 0.00 0.02 0.04 0.03 0.03 0.07 0.05 0.05
0.01 0.03 0.02 0.02 0.01 0.00 0.01 0.00 0.01 0.01 0.07 0.13 0.16 0.14 0.18 0.25 0.02 0.05 0.05 0.03 0.03 0.03 0.02 0.01 0.01 0.01 0.00 0.00 0.00 0.00 0.00 0.00 0.00 0.00 0.00 0.00 0.00 0.01 0.01 0.01 0.02 0.02 0.01
0.04 0.03 0.02 0.02 0.01 0.00 0.01 0.01 0.01 0.01 0.09 0.19 0.28 0.37 0.41 0.27 0.06 0.11 0.05 0.03 0.02 0.01 0.02 0.02 0.01 0.00 0.00 0.00 0.00 0.00 0.00 0.00 0.00 0.00 0.00 0.00 0.00 0.00 0.00 0.00 0.00 0.00 0.00
0.06 0.06 0.03 0.04 0.01 0.00 0.01 0.01 0.01 0.02 0.05 0.18 0.29 0.41 0.33 0.19 0.14 0.15 0.05 0.01 0.01 0.03 0.02 0.01 0.00 0.00 0.00 0.00 0.00 0.00 0.00 0.00 0.00 0.00 0.00 0.00 0.00 0.00 0.00 0.00 0.00 0.00 0.00
0.06 0.09 0.02 0.08 0.03 0.01 0.01 0.00 0.03 0.03 0.05 0.14 0.23 0.21 0.12 0.13 0.28 0.11 0.02 0.01 0.02 0.03 0.01 0.00 0.00 0.00 0.00 0.00 0.00 0.00 0.00 0.00 0.00 0.00 0.00 0.00 0.00 0.00 0.00 0.00 0.00 0.00 0.00
0.17 0.19 0.13 0.14 0.11 0.03 0.01 0.02 0.05 0.04 0.06 0.13 0.19 0.22 0.15 0.11 0.26 0.09 0.01 0.02 0.03 0.02 0.01 0.01 0.00 0.00 0.00 0.00 0.00 0.00 0.00 0.00 0.00 0.00 0.00 0.00 0.00 0.00 0.00 0.00 0.00 0.00 0.00
0.74 0.68 0.57 0.23 0.17 0.08 0.02 0.02 0.08 0.06 0.07 0.12 0.20 0.25 0.14 0.07 0.15 0.07 0.02 0.02 0.03 0.02 0.01 0.00 0.00 0.00 0.00 0.00 0.00 0.00 0.00 0.00 0.00 0.00 0.00 0.00 0.00 0.00 0.00 0.00 0.00 0.00 0.00
1.24 1.11 0.98 0.53 0.18 0.08 0.05 0.03 0.10 0.11 0.05 0.10 0.17 0.13 0.06 0.02 0.07 0.13 0.02 0.03 0.03 0.02 0.01 0.00 0.00 0.00 0.00 0.00 0.00 0.00 0.00 0.00 0.00 0.00 0.00 0.00 0.00 0.00 0.00 0.00 0.00 0.00 0.00
1.60 1.49 1.32 1.05 0.53 0.21 0.07 0.03 0.06 0.17 0.10 0.08 0.12 0.08 0.07 0.01 0.01 0.04 0.01 0.01 0.02 0.02 0.01 0.00 0.00 0.00 0.00 0.00 0.00 0.00 0.00 0.00 0.00 0.00 0.00 0.00 0.00 0.00 0.00 0.00 0.00 0.00 0.00
1.65 1.53 1.42 1.23 0.67 0.27 0.11 0.09 0.10 0.21 0.18 0.06 0.08 0.07 0.05 0.03 0.00 0.00 0.00 0.01 0.02 0.02 0.00 0.00 0.00 0.00 0.00 0.00 0.00 0.00 0.00 0.00 0.00 0.00 0.00 0.00 0.00 0.00 0.00 0.00 0.00 0.00 0.00
1.60 1.15 1.04 1.13 1.11 0.64 0.20 0.10 0.11 0.31 0.23 0.15 0.06 0.05 0.07 0.05 0.01 0.00 0.00 0.01 0.01 0.00 0.00 0.00 0.00 0.00 0.00 0.00 0.00 0.00 0.00 0.00 0.00 0.00 0.00 0.00 0.00 0.00 0.00 0.00 0.01 0.01 0.03
1.91 1.03 0.67 0.80 0.69 0.59 0.34 0.08 0.04 0.18 0.23 0.18 0.11 0.06 0.05 0.04 0.03 0.00 0.00 0.00 0.00 0.00 0.00 0.00 0.00 0.00 0.00 0.00 0.00 0.00 0.00 0.00 0.00 0.00 0.00 0.00 0.00 0.00 0.00 0.01 0.03 0.06 0.09
1.55 1.71 1.17 0.95 1.21 0.49 0.37 0.10 0.04 0.05 0.30 0.18 0.18 0.09 0.04 0.02 0.02 0.01 0.00 0.00 0.00 0.00 0.00 0.00 0.00 0.00 0.00 0.00 0.00 0.00 0.00 0.00 0.00 0.00 0.00 0.00 0.00 0.00 0.00 0.00 0.01 0.03 0.07
1.03 1.74 2.21 1.32 1.01 1.07 0.78 0.28 0.07 0.03 0.11 0.31 0.22 0.15 0.05 0.05 0.02 0.01 0.00 0.00 0.00 0.00 0.00 0.00 0.00 0.00 0.00 0.00 0.00 0.00 0.00 0.00 0.00 0.00 0.00 0.00 0.00 0.00 0.00 0.00 0.00 0.04 0.12
0.43 1.17 1.65 1.62 0.90 0.92 0.95 0.65 0.18 0.05 0.02 0.22 0.30 0.24 0.15 0.07 0.03 0.02 0.01 0.02 0.02 0.01 0.00 0.00 0.00 0.00 0.00 0.00 0.00 0.00 0.00 0.00 0.00 0.00 0.00 0.00 0.00 0.00 0.00 0.00 0.01 0.04 0.10
0.25 0.53 0.82 0.68 0.80 0.48 0.83 0.74 0.47 0.16 0.03 0.04 0.33 0.34 0.24 0.23 0.16 0.08 0.03 0.03 0.04 0.03 0.00 0.00 0.00 0.00 0.00 0.00 0.00 0.00 0.00 0.00 0.00 0.00 0.00 0.00 0.00 0.00 0.00 0.00 0.00 0.01 0.03
0.21 0.18 0.23 0.31 0.28 0.39 0.42 0.75 0.60 0.44 0.18 0.03 0.09 0.34 0.55 0.32 0.36 0.22 0.12 0.07 0.06 0.07 0.01 0.00 0.00 0.00 0.00 0.00 0.00 0.00 0.00 0.00 0.00 0.00 0.00 0.00 0.00 0.00 0.00 0.00 0.00 0.00 0.01
0.18 0.14 0.14 0.16 0.17 0.26 0.30 0.46 0.68 0.59 0.41 0.17 0.08 0.07 0.26 0.67 0.53 0.62 0.44 0.30 0.30 0.29 0.08 0.00 0.00 0.00 0.00 0.00 0.00 0.00 0.00 0.00 0.00 0.00 0.00 0.00 0.00 0.00 0.00 0.00 0.00 0.00 0.00
0.33 0.19 0.12 0.12 0.09 0.16 0.25 0.34 0.39 0.46 0.50 0.37 0.23 0.20 0.13 0.18 0.40 0.46 0.53 0.56 0.50 0.47 0.19 0.03 0.00 0.00 0.00 0.00 0.00 0.00 0.00 0.00 0.00 0.00 0.00 0.00 0.00 0.00 0.00 0.00 0.00 0.00 0.00
0.74 0.38 0.23 0.17 0.14 0.15 0.26 0.60 0.67 0.47 0.34 0.39 0.35 0.31 0.36 0.33 0.32 0.40 0.30 0.22 0.27 0.29 0.16 0.11 0.07 0.06 0.05 0.05 0.03 0.01 0.00 0.00 0.00 0.00 0.00 0.00 0.00 0.00 0.00 0.00 0.00 0.00 0.00
1.11 0.67 0.51 0.38 0.33 0.28 0.25 0.33 0.58 0.80 0.87 0.51 0.35 0.41 0.37 0.45 0.40 0.44 0.47 0.47 0.36 0.36 0.37 0.34 0.22 0.19 0.27 0.20 0.12 0.10 0.05 0.01 0.01 0.00 0.00 0.00 0.00 0.00 0.00 0.00 0.00 0.00 0.00
1.22 0.75 0.62 0.75 0.62 0.47 0.57 0.50 0.52 0.62 0.73 0.83 0.76 0.61 0.65 0.64 0.53 0.61 0.84 0.82 0.94 0.94 0.80 0.71 0.57 0.44 0.31 0.24 0.24 0.17 0.11 0.02 0.00 0.00 0.00 0.00 0.01 0.00 0.00 0.00 0.00 0.00 0.00
1.57 0.95 0.68 1.04 1.03 0.76 0.78 1.14 0.92 0.93 0.73 0.85 1.00 1.18 1.08 1.15 1.26 1.25 1.31 1.40 1.32 1.32 1.35 1.20 1.12 0.97 0.84 0.62 0.45 0.32 0.20 0.11 0.06 0.03 0.01 0.00 0.00 0.00 0.00 0.00 0.00 0.00 0.00
1.39 1.37 1.00 0.97 1.04 0.90 0.77 1.12 1.17 0.89 0.84 0.76 0.83 0.95 0.95 1.03 1.30 1.61 1.65 1.59 1.54 1.25 1.09 0.97 0.78 0.69 0.61 0.45 0.31 0.19 0.14 0.11 0.05 0.06 0.04 0.02 0.01 0.01 0.01 0.01 0.01 0.00 0.00

GFSSE_prec_precacc24_117.txt.gz
Total_Precipitation_Accumulation
0.00 0.01 0.03 0.01 0.01 0.01 0.00 0.00 0.01 0.01 0.02 0.02 0.03 0.01 0.00 0.11 0.16 0.00 0.00 0.00 0.03 0.07 0.06 0.06 0.05 0.05 0.04 0.03 0.02 0.03 0.02 0.01 0.01 0.01 0.01 0.04 0.06 0.06 0.05 0.05 0.05 0.07 0.13
0.00 0.01 0.02 0.01 0.02 0.02 0.01 0.01 0.01 0.01 0.02 0.03 0.05 0.02 0.01 0.20 0.08 0.00 0.01 0.04 0.06 0.05 0.06 0.05 0.03 0.02 0.02 0.02 0.02 0.00 0.00 0.00 0.00 0.00 0.00 0.00 0.03 0.04 0.03 0.04 0.10 0.08 0.12
0.00 0.02 0.01 0.01 0.02 0.02 0.02 0.02 0.01 0.01 0.03 0.02 0.04 0.03 0.04 0.20 0.03 0.01 0.05 0.04 0.06 0.06 0.03 0.02 0.02 0.01 0.02 0.01 0.00 0.00 0.00 0.00 0.00 0.00 0.00 0.00 0.02 0.05 0.03 0.03 0.06 0.04 0.05
0.01 0.02 0.01 0.01 0.00 0.01 0.02 0.01 0.01 0.01 0.04 0.04 0.07 0.08 0.12 0.19 0.02 0.07 0.05 0.04 0.05 0.04 0.02 0.01 0.00 0.01 0.00 0.00 0.00 0.00 0.00 0.00 0.00 0.00 0.00 0.00 0.00 0.01 0.01 0.01 0.02 0.02 0.01
0.03 0.03 0.02 0.01 0.00 0.01 0.01 0.01 0.01 0.02 0.06 0.12 0.17 0.21 0.27 0.25 0.08 0.20 0.08 0.05 0.02 0.01 0.01 0.01 0.01 0.00 0.00 0.00 0.00 0.00 0.00 0.00 0.00 0.00 0.00 0.00 0.00 0.00 0.00 0.00 0.00 0.00 0.00
0.05 0.05 0.02 0.02 0.01 0.02 0.02 0.01 0.01 0.02 0.04 0.15 0.23 0.37 0.31 0.19 0.23 0.30 0.12 0.02 0.01 0.02 0.02 0.01 0.00 0.00 0.00 0.00 0.00 0.00 0.00 0.00 0.00 0.00 0.00 0.00 0.00 0.00 0.00 0.00 0.00 0.00 0.00
0.05 0.07 0.02 0.06 0.03 0.02 0.02 0.01 0.03 0.04 0.05 0.14 0.22 0.20 0.12 0.15 0.43 0.22 0.04 0.01 0.02 0.02 0.01 0.00 0.00 0.00 0.00 0.00 0.00 0.00 0.00 0.00 0.00 0.00 0.00 0.00 0.00 0.00 0.00 0.00 0.00 0.00 0.00
0.27 0.26 0.13 0.12 0.12 0.04 0.02 0.02 0.06 0.05 0.07 0.13 0.19 0.22 0.16 0.13 0.33 0.19 0.02 0.01 0.03 0.02 0.01 0.00 0.00 0.00 0.00 0.00 0.00 0.00 0.00 0.00 0.00 0.00 0.00 0.00 0.00 0.00 0.00 0.00 0.00 0.00 0.00
0.82 0.80 0.64 0.26 0.18 0.09 0.02 0.01 0.08 0.08 0.11 0.15 0.21 0.25 0.14 0.08 0.16 0.16 0.03 0.02 0.03 0.02 0.01 0.00 0.00 0.00 0.00 0.00 0.00 0.00 0.00 0.00 0.00 0.00 0.00 0.00 0.00 0.00 0.00 0.00 0.00 0.00 0.00
1.21 1.13 1.07 0.64 0.27 0.09 0.06 0.04 0.09 0.11 0.06 0.12 0.18 0.14 0.06 0.02 0.07 0.17 0.03 0.02 0.03 0.02 0.01 0.00 0.00 0.00 0.00 0.00 0.00 0.00 0.00 0.00 0.00 0.00 0.00 0.00 0.00 0.00 0.00 0.00 0.00 0.00 0.00
1.53 1.45 1.41 1.18 0.63 0.26 0.11 0.06 0.13 0.18 0.10 0.09 0.13 0.09 0.08 0.02 0.02 0.06 0.01 0.01 0.02 0.02 0.01 0.00 0.00 0.00 0.00 0.00 0.00 0.00 0.00 0.00 0.00 0.00 0.00 0.00 0.00 0.00 0.00 0.00 0.00 0.00 0.00
1.61 1.46 1.41 1.26 0.80 0.36 0.20 0.15 0.10 0.23 0.18 0.06 0.08 0.08 0.06 0.03 0.01 0.00 0.00 0.01 0.02 0.02 0.00 0.00 0.00 0.00 0.00 0.00 0.00 0.00 0.00 0.00 0.00 0.00 0.00 0.00 0.00 0.00 0.00 0.00 0.00 0.00 0.00
1.48 1.04 1.03 1.12 1.12 0.66 0.26 0.15 0.14 0.40 0.31 0.16 0.06 0.05 0.08 0.06 0.03 0.02 0.01 0.01 0.01 0.00 0.00 0.00 0.00 0.00 0.00 0.00 0.00 0.00 0.00 0.00 0.00 0.00 0.00 0.00 0.00 0.00 0.00 0.00 0.01 0.01 0.03
1.70 0.87 0.63 0.79 0.69 0.59 0.34 0.09 0.04 0.19 0.27 0.22 0.13 0.06 0.06 0.04 0.05 0.03 0.00 0.00 0.00 0.00 0.00 0.00 0.00 0.00 0.00 0.00 0.00 0.00 0.00 0.00 0.00 0.00 0.00 0.00 0.00 0.00 0.00 0.01 0.04 0.07 0.12
1.26 1.40 1.06 0.93 1.21 0.49 0.37 0.10 0.04 0.05 0.30 0.19 0.19 0.10 0.06 0.05 0.08 0.04 0.01 0.00 0.00 0.00 0.00 0.00 0.00 0.00 0.00 0.00 0.00 0.00 0.00 0.00 0.00 0.00 0.00 0.00 0.00 0.00 0.00 0.01 0.02 0.03 0.06
0.63 1.50 2.13 1.28 1.00 1.07 0.78 0.28 0.07 0.03 0.11 0.31 0.22 0.16 0.08 0.08 0.06 0.04 0.02 0.00 0.01 0.01 0.01 0.00 0.00 0.00 0.00 0.00 0.00 0.00 0.00 0.00 0.00 0.00 0.00 0.00 0.00 0.00 0.00 0.00 0.01 0.04 0.09
0.24 1.01 1.65 1.62 0.90 0.92 0.95 0.66 0.18 0.05 0.02 0.22 0.30 0.24 0.15 0.07 0.04 0.02 0.02 0.02 0.03 0.03 0.03 0.01 0.00 0.00 0.00 0.00 0.00 0.00 0.00 0.00 0.00 0.00 0.00 0.00 0.00 0.00 0.00 0.00 0.00 0.03 0.09
0.23 0.52 0.82 0.68 0.80 0.48 0.83 0.74 0.47 0.16 0.03 0.04 0.33 0.34 0.24 0.23 0.16 0.08 0.03 0.03 0.06 0.06 0.05 0.02 0.00 0.00 0.00 0.00 0.00 0.00 0.00 0.00 0.00 0.00 0.00 0.00 0.00 0.00 0.00 0.00 0.00 0.00 0.02
0.15 0.16 0.23 0.31 0.28 0.39 0.42 0.75 0.60 0.43 0.18 0.03 0.09 0.34 0.55 0.32 0.36 0.22 0.13 0.08 0.06 0.09 0.08 0.05 0.02 0.00 0.00 0.00 0.00 0.00 0.00 0.00 0.00 0.00 0.00 0.00 0.00 0.00 0.00 0.00 0.00 0.00 0.00
0.13 0.12 0.13 0.16 0.17 0.26 0.30 0.46 0.68 0.59 0.41 0.16 0.06 0.06 0.25 0.66 0.53 0.62 0.44 0.31 0.31 0.35 0.46 0.42 0.16 0.05 0.01 0.00 0.00 0.00 0.00 0.00 0.00 0.00 0.00 0.00 0.00 0.00 0.00 0.00 0.00 0.00 0.00
0.28 0.18 0.11 0.11 0.09 0.16 0.25 0.34 0.38 0.45 0.50 0.36 0.19 0.14 0.09 0.16 0.41 0.47 0.54 0.56 0.52 0.52 0.44 0.42 0.35 0.18 0.08 0.02 0.00 0.00 0.00 0.00 0.00 0.00 0.00 0.00 0.00 0.00 0.00 0.00 0.00 0.00 0.00
0.67 0.33 0.21 0.15 0.13 0.15 0.26 0.60 0.67 0.47 0.33 0.38 0.33 0.24 0.22 0.21 0.20 0.29 0.26 0.23 0.28 0.39 0.37 0.29 0.28 0.25 0.15 0.09 0.05 0.01 0.00 0.00 0.00 0.00 0.00 0.00 0.00 0.00 0.01 0.01 0.00 0.00 0.00
1.02 0.58 0.45 0.30 0.29 0.27 0.25 0.33 0.51 0.72 0.83 0.49 0.31 0.33 0.31 0.32 0.26 0.28 0.30 0.29 0.20 0.20 0.25 0.27 0.26 0.31 0.36 0.25 0.14 0.11 0.05 0.01 0.01 0.00 0.00 0.00 0.00 0.01 0.01 0.01 0.01 0.01 0.01
1.19 0.70 0.54 0.68 0.54 0.40 0.41 0.32 0.31 0.44 0.61 0.73 0.67 0.49 0.52 0.49 0.38 0.44 0.61 0.60 0.78 0.87 0.73 0.62 0.50 0.42 0.33 0.28 0.28 0.20 0.12 0.02 0.00 0.00 0.00 0.01 0.02 0.01 0.00 0.01 0.01 0.01 0.00
1.54 0.93 0.65 0.96 0.91 0.61 0.57 0.83 0.59 0.62 0.51 0.58 0.68 0.86 0.77 0.77 0.78 0.77 0.90 1.05 1.08 1.18 1.25 1.11 1.05 0.94 0.85 0.65 0.48 0.36 0.24 0.13 0.06 0.05 0.02 0.01 0.02 0.02 0.02 0.02 0.01 0.00 0.00
1.39 1.37 1.00 0.96 1.02 0.88 0.73 1.05 1.04 0.76 0.62 0.55 0.64 0.75 0.69 0.61 0.74 1.05 1.29 1.40 1.41 1.21 1.07 0.93 0.77 0.71 0.65 0.52 0.37 0.26 0.23 0.21 0.16 0.16 0.12 0.06 0.04 0.02 0.01 0.01 0.01 0.01 0.00

GFSSE_prec_precacc24_120.txt.gz
Total_Precipitation_Accumulation
0.00 0.01 0.03 0.01 0.01 0.01 0.00 0.01 0.02 0.02 0.03 0.03 0.05 0.02 0.00 0.09 0.14 0.00 0.00 0.00 0.03 0.06 0.07 0.07 0.06 0.05 0.04 0.04 0.03 0.02 0.02 0.02 0.02 0.01 0.02 0.05 0.08 0.06 0.05 0.06 0.08 0.09 0.14
0.00 0.01 0.02 0.02 0.02 0.02 0.01 0.02 0.02 0.02 0.02 0.03 0.07 0.02 0.00 0.18 0.06 0.00 0.01 0.04 0.06 0.05 0.06 0.05 0.03 0.02 0.01 0.02 0.02 0.00 0.00 0.00 0.00 0.00 0.00 0.00 0.04 0.04 0.03 0.04 0.10 0.09 0.12
0.00 0.02 0.01 0.02 0.02 0.02 0.02 0.02 0.01 0.01 0.03 0.02 0.06 0.03 0.01 0.16 0.02 0.01 0.05 0.04 0.06 0.06 0.03 0.02 0.01 0.01 0.02 0.01 0.00 0.00 0.00 0.00 0.00 0.00 0.00 0.01 0.03 0.06 0.03 0.03 0.06 0.04 0.04
0.01 0.03 0.01 0.02 0.01 0.02 0.02 0.01 0.01 0.01 0.03 0.02 0.06 0.04 0.06 0.14 0.01 0.07 0.05 0.04 0.07 0.03 0.01 0.01 0.00 0.01 0.01 0.00 0.00 0.00 0.00 0.00 0.00 0.00 0.00 0.00 0.00 0.01 0.01 0.01 0.02 0.02 0.01
0.02 0.03 0.02 0.02 0.02 0.04 0.03 0.02 0.01 0.02 0.04 0.04 0.07 0.12 0.14 0.20 0.11 0.22 0.10 0.08 0.04 0.01 0.00 0.00 0.00 0.00 0.00 0.00 0.00 0.00 0.00 0.00 0.00 0.00 0.00 0.00 0.00 0.00 0.00 0.00 0.00 0.00 0.00
0.04 0.05 0.02 0.02 0.04 0.05 0.03 0.02 0.01 0.01 0.04 0.07 0.10 0.21 0.20 0.18 0.33 0.44 0.19 0.07 0.01 0.01 0.01 0.00 0.00 0.00 0.00 0.00 0.00 0.00 0.00 0.00 0.00 0.00 0.00 0.00 0.00 0.00 0.00 0.00 0.00 0.00 0.00
0.05 0.07 0.02 0.06 0.06 0.08 0.09 0.07 0.07 0.05 0.06 0.10 0.13 0.16 0.12 0.15 0.49 0.35 0.14 0.02 0.01 0.01 0.00 0.00 0.00 0.00 0.00 0.00 0.00 0.00 0.00 0.00 0.00 0.00 0.00 0.00 0.00 0.00 0.00 0.00 0.00 0.00 0.00
0.27 0.27 0.13 0.10 0.13 0.06 0.07 0.10 0.12 0.10 0.09 0.14 0.17 0.23 0.20 0.16 0.35 0.27 0.12 0.03 0.02 0.01 0.00 0.00 0.00 0.00 0.00 0.00 0.00 0.00 0.00 0.00 0.00 0.00 0.00 0.00 0.00 0.00 0.00 0.00 0.00 0.00 0.00
0.81 0.81 0.66 0.28 0.20 0.10 0.02 0.02 0.11 0.12 0.15 0.18 0.24 0.27 0.16 0.11 0.19 0.21 0.09 0.03 0.02 0.02 0.01 0.00 0.00 0.00 0.00 0.00 0.00 0.00 0.00 0.00 0.00 0.00 0.00 0.00 0.00 0.00 0.00 0.00 0.00 0.00 0.00
1.17 1.11 1.04 0.68 0.35 0.10 0.05 0.04 0.10 0.12 0.11 0.15 0.20 0.15 0.08 0.03 0.08 0.21 0.06 0.03 0.02 0.02 0.01 0.00 0.00 0.00 0.00 0.00 0.00 0.00 0.00 0.00 0.00 0.00 0.00 0.00 0.00 0.00 0.00 0.00 0.00 0.00 0.00
1.45 1.37 1.37 1.22 0.66 0.31 0.11 0.09 0.16 0.18 0.12 0.11 0.14 0.10 0.10 0.03 0.02 0.10 0.04 0.02 0.02 0.02 0.01 0.00 0.00 0.00 0.00 0.00 0.00 0.00 0.00 0.00 0.00 0.00 0.00 0.00 0.00 0.00 0.00 0.00 0.00 0.00 0.00
1.53 1.38 1.40 1.26 0.85 0.37 0.22 0.18 0.10 0.26 0.19 0.06 0.08 0.09 0.07 0.04 0.02 0.03 0.04 0.02 0.02 0.02 0.00 0.00 0.00 0.00 0.00 0.00 0.00 0.00 0.00 0.00 0.00 0.00 0.00 0.00 0.00 0.00 0.00 0.00 0.00 0.00 0.00
1.08 0.92 1.02 1.12 1.12 0.66 0.28 0.15 0.12 0.45 0.35 0.16 0.06 0.07 0.10 0.09 0.06 0.06 0.05 0.01 0.01 0.00 0.00 0.00 0.00 0.00 0.00 0.00 0.00 0.00 0.00 0.00 0.00 0.00 0.00 0.00 0.00 0.00 0.00 0.00 0.01 0.01 0.02
0.92 0.63 0.62 0.79 0.69 0.59 0.34 0.09 0.03 0.17 0.26 0.23 0.15 0.07 0.07 0.05 0.08 0.07 0.05 0.01 0.00 0.00 0.00 0.00 0.00 0.00 0.00 0.00 0.00 0.00 0.00 0.00 0.00 0.00 0.00 0.00 0.00 0.00 0.00 0.02 0.06 0.08 0.11
0.37 0.84 0.95 0.93 1.21 0.49 0.37 0.10 0.04 0.04 0.30 0.22 0.21 0.11 0.14 0.09 0.10 0.06 0.06 0.04 0.01 0.00 0.01 0.00 0.00 0.00 0.00 0.00 0.00 0.00 0.00 0.00 0.00 0.00 0.00 0.00 0.00 0.00 0.00 0.01 0.04 0.05 0.06
0.17 0.81 1.76 1.14 0.99 1.07 0.78 0.28 0.07 0.03 0.11 0.31 0.22 0.16 0.11 0.13 0.16 0.08 0.06 0.03 0.01 0.01 0.01 0.01 0.00 0.00 0.00 0.00 0.00 0.00 0.00 0.00 0.00 0.00 0.00 0.00 0.00 0.00 0.00 0.00 0.00 0.04 0.08
0.11 0.36 1.32 1.46 0.82 0.92 0.95 0.66 0.18 0.05 0.02 0.22 0.30 0.24 0.15 0.08 0.06 0.05 0.05 0.05 0.04 0.05 0.03 0.03 0.01 0.00 0.00 0.00 0.00 0.00 0.00 0.00 0.00 0.00 0.00 0.00 0.00 0.00 0.00 0.00 0.00 0.01 0.06
0.20 0.23 0.64 0.60 0.70 0.48 0.83 0.74 0.48 0.16 0.03 0.04 0.33 0.34 0.24 0.23 0.16 0.09 0.03 0.04 0.08 0.09 0.07 0.03 0.01 0.00 0.00 0.00 0.00 0.00 0.00 0.00 0.00 0.00 0.00 0.00 0.00 0.00 0.00 0.00 0.00 0.00 0.00
0.13 0.13 0.17 0.28 0.25 0.39 0.42 0.75 0.61 0.44 0.18 0.03 0.09 0.34 0.55 0.32 0.36 0.22 0.13 0.08 0.06 0.09 0.09 0.06 0.03 0.01 0.00 0.00 0.00 0.00 0.00 0.00 0.00 0.00 0.00 0.00 0.00 0.00 0.00 0.00 0.00 0.00 0.00
0.10 0.11 0.13 0.15 0.16 0.26 0.30 0.46 0.69 0.60 0.41 0.16 0.06 0.06 0.25 0.66 0.53 0.62 0.45 0.31 0.31 0.36 0.46 0.42 0.16 0.06 0.02 0.00 0.00 0.00 0.00 0.00 0.00 0.00 0.00 0.00 0.00 0.00 0.00 0.00 0.00 0.00 0.00
0.22 0.17 0.10 0.10 0.09 0.16 0.25 0.34 0.38 0.45 0.50 0.36 0.19 0.14 0.09 0.16 0.40 0.46 0.53 0.57 0.52 0.53 0.44 0.42 0.38 0.20 0.09 0.04 0.02 0.00 0.00 0.00 0.00 0.00 0.00 0.00 0.00 0.00 0.00 0.00 0.00 0.00 0.00
0.52 0.29 0.19 0.15 0.13 0.15 0.26 0.60 0.67 0.47 0.33 0.38 0.33 0.23 0.20 0.17 0.15 0.22 0.20 0.21 0.28 0.40 0.38 0.28 0.27 0.25 0.16 0.11 0.07 0.02 0.00 0.00 0.00 0.00 0.00 0.00 0.00 0.00 0.01 0.01 0.02 0.04 0.02
0.70 0.49 0.40 0.28 0.28 0.27 0.24 0.33 0.51 0.71 0.83 0.49 0.31 0.32 0.29 0.23 0.18 0.16 0.15 0.13 0.10 0.14 0.20 0.23 0.23 0.30 0.34 0.25 0.16 0.13 0.07 0.01 0.01 0.00 0.00 0.00 0.00 0.01 0.01 0.03 0.06 0.07 0.05
1.01 0.63 0.50 0.66 0.53 0.39 0.41 0.32 0.30 0.41 0.59 0.71 0.62 0.45 0.47 0.43 0.33 0.31 0.37 0.34 0.36 0.57 0.62 0.59 0.50 0.42 0.33 0.27 0.28 0.21 0.14 0.05 0.04 0.02 0.01 0.02 0.04 0.05 0.08 0.09 0.08 0.06 0.02
1.41 0.88 0.60 0.95 0.88 0.59 0.56 0.79 0.43 0.29 0.33 0.51 0.60 0.74 0.65 0.64 0.64 0.62 0.63 0.65 0.58 0.60 0.84 0.95 0.97 0.90 0.85 0.65 0.48 0.36 0.25 0.16 0.11 0.13 0.07 0.04 0.05 0.04 0.04 0.04 0.03 0.01 0.01
1.34 1.30 0.96 0.96 0.98 0.82 0.69 0.97 0.88 0.57 0.44 0.47 0.58 0.64 0.55 0.48 0.59 0.71 0.78 0.78 0.79 0.81 0.84 0.82 0.73 0.69 0.64 0.51 0.37 0.26 0.24 0.23 0.17 0.20 0.16 0.09 0.07 0.04 0.03 0.02 0.01 0.01 0.01

GFSSE_prec_precacc24_123.txt.gz
Total_Precipitation_Accumulation
0.00 0.01 0.03 0.01 0.01 0.01 0.00 0.01 0.05 0.04 0.05 0.05 0.06 0.03 0.01 0.05 0.09 0.00 0.00 0.00 0.02 0.08 0.08 0.06 0.08 0.07 0.06 0.05 0.03 0.02 0.02 0.02 0.02 0.01 0.02 0.08 0.11 0.08 0.06 0.09 0.11 0.09 0.13
0.00 0.01 0.02 0.01 0.02 0.02 0.01 0.02 0.04 0.04 0.03 0.05 0.08 0.04 0.01 0.15 0.06 0.00 0.01 0.03 0.05 0.06 0.07 0.05 0.05 0.02 0.02 0.02 0.01 0.00 0.00 0.00 0.00 0.00 0.00 0.00 0.05 0.05 0.03 0.04 0.11 0.09 0.11
0.00 0.02 0.01 0.02 0.02 0.02 0.02 0.02 0.02 0.01 0.04 0.03 0.09 0.06 0.01 0.13 0.01 0.01 0.05 0.04 0.06 0.06 0.02 0.02 0.02 0.01 0.02 0.01 0.00 0.00 0.00 0.00 0.00 0.00 0.00 0.01 0.04 0.06 0.03 0.03 0.06 0.04 0.03
0.01 0.03 0.01 0.03 0.03 0.04 0.03 0.01 0.01 0.01 0.03 0.02 0.05 0.04 0.03 0.09 0.01 0.07 0.05 0.04 0.07 0.03 0.01 0.01 0.00 0.01 0.01 0.00 0.00 0.00 0.00 0.00 0.00 0.00 0.00 0.00 0.00 0.01 0.01 0.01 0.02 0.02 0.01
0.01 0.04 0.02 0.02 0.03 0.07 0.05 0.03 0.02 0.01 0.04 0.03 0.07 0.08 0.08 0.13 0.12 0.22 0.10 0.09 0.04 0.00 0.00 0.00 0.00 0.00 0.00 0.00 0.00 0.00 0.00 0.00 0.00 0.00 0.00 0.00 0.00 0.00 0.00 0.00 0.00 0.00 0.00
0.02 0.07 0.05 0.02 0.05 0.09 0.07 0.04 0.02 0.01 0.03 0.05 0.07 0.14 0.12 0.16 0.38 0.50 0.24 0.12 0.01 0.00 0.00 0.00 0.00 0.00 0.00 0.00 0.00 0.00 0.00 0.00 0.00 0.00 0.00 0.00 0.00 0.00 0.00 0.00 0.00 0.00 0.00
0.04 0.04 0.03 0.07 0.09 0.12 0.12 0.09 0.08 0.05 0.05 0.07 0.07 0.10 0.09 0.17 0.55 0.44 0.27 0.10 0.00 0.00 0.00 0.00 0.00 0.00 0.00 0.00 0.00 0.00 0.00 0.00 0.00 0.00 0.00 0.00 0.00 0.00 0.00 0.00 0.00 0.00 0.00
0.25 0.23 0.12 0.08 0.13 0.08 0.12 0.13 0.14 0.11 0.08 0.10 0.13 0.19 0.24 0.21 0.39 0.34 0.21 0.10 0.01 0.00 0.00 0.00 0.00 0.00 0.00 0.00 0.00 0.00 0.00 0.00 0.00 0.00 0.00 0.00 0.00 0.00 0.00 0.00 0.00 0.00 0.00
0.77 0.76 0.67 0.27 0.19 0.10 0.05 0.06 0.13 0.14 0.13 0.15 0.23 0.27 0.18 0.13 0.19 0.24 0.17 0.08 0.02 0.01 0.00 0.00 0.00 0.00 0.00 0.00 0.00 0.00 0.00 0.00 0.00 0.00 0.00 0.00 0.00 0.00 0.00 0.00 0.00 0.00 0.00
0.77 0.98 1.00 0.66 0.36 0.10 0.05 0.06 0.11 0.13 0.12 0.16 0.20 0.16 0.09 0.05 0.08 0.24 0.09 0.05 0.03 0.01 0.01 0.00 0.00 0.00 0.00 0.00 0.00 0.00 0.00 0.00 0.00 0.00 0.00 0.00 0.00 0.00 0.00 0.00 0.00 0.00 0.00
0.46 0.91 1.25 1.17 0.66 0.33 0.11 0.09 0.16 0.18 0.13 0.13 0.14 0.10 0.10 0.03 0.02 0.11 0.05 0.02 0.03 0.02 0.01 0.00 0.00 0.00 0.00 0.00 0.00 0.00 0.00 0.00 0.00 0.00 0.00 0.00 0.00 0.00 0.00 0.00 0.00 0.00 0.00
0.22 0.64 0.95 1.20 0.84 0.38 0.22 0.17 0.10 0.26 0.19 0.06 0.08 0.09 0.07 0.04 0.02 0.05 0.05 0.04 0.04 0.02 0.00 0.00 0.00 0.00 0.00 0.00 0.00 0.00 0.00 0.00 0.00 0.00 0.00 0.00 0.00 0.00 0.00 0.00 0.00 0.00 0.00
0.07 0.29 0.54 0.96 1.11 0.66 0.28 0.15 0.13 0.47 0.36 0.17 0.06 0.07 0.10 0.09 0.08 0.10 0.08 0.02 0.01 0.00 0.00 0.00 0.00 0.00 0.00 0.00 0.00 0.00 0.00 0.00 0.00 0.00 0.00 0.00 0.00 0.00 0.00 0.00 0.01 0.00 0.01
0.07 0.16 0.28 0.45 0.67 0.58 0.32 0.07 0.03 0.19 0.27 0.24 0.15 0.07 0.07 0.05 0.09 0.13 0.09 0.03 0.01 0.00 0.00 0.00 0.00 0.00 0.00 0.00 0.00 0.00 0.00 0.00 0.00 0.00 0.00 0.00 0.00 0.00 0.00 0.02 0.07 0.10 0.10
0.01 0.06 0.15 0.46 1.15 0.49 0.33 0.05 0.00 0.03 0.30 0.22 0.21 0.11 0.14 0.12 0.13 0.09 0.12 0.10 0.06 0.02 0.02 0.00 0.00 0.00 0.00 0.00 0.00 0.00 0.00 0.00 0.00 0.00 0.00 0.00 0.00 0.00 0.00 0.01 0.04 0.05 0.06
0.01 0.02 0.08 0.43 0.96 1.07 0.76 0.25 0.03 0.01 0.11 0.31 0.22 0.16 0.12 0.15 0.22 0.14 0.12 0.07 0.05 0.07 0.02 0.01 0.00 0.00 0.00 0.00 0.00 0.00 0.00 0.00 0.00 0.00 0.00 0.00 0.00 0.00 0.00 0.00 0.00 0.02 0.07
0.07 0.04 0.11 0.79 0.72 0.91 0.95 0.65 0.16 0.02 0.02 0.22 0.30 0.24 0.16 0.09 0.09 0.11 0.11 0.12 0.13 0.15 0.12 0.05 0.01 0.00 0.00 0.00 0.00 0.00 0.00 0.00 0.00 0.00 0.00 0.00 0.00 0.00 0.00 0.00 0.00 0.00 0.02
0.19 0.08 0.11 0.37 0.46 0.41 0.83 0.74 0.48 0.17 0.03 0.04 0.33 0.34 0.24 0.24 0.16 0.10 0.05 0.05 0.11 0.17 0.16 0.07 0.01 0.00 0.00 0.00 0.00 0.00 0.00 0.00 0.00 0.00 0.00 0.00 0.00 0.00 0.00 0.00 0.00 0.00 0.00
0.13 0.11 0.08 0.18 0.17 0.23 0.35 0.75 0.61 0.45 0.19 0.03 0.09 0.34 0.55 0.32 0.36 0.22 0.13 0.08 0.07 0.12 0.11 0.07 0.03 0.01 0.00 0.00 0.00 0.00 0.00 0.00 0.00 0.00 0.00 0.00 0.00 0.00 0.00 0.00 0.00 0.00 0.00
0.10 0.11 0.12 0.09 0.10 0.18 0.22 0.41 0.69 0.61 0.42 0.17 0.07 0.06 0.25 0.66 0.53 0.62 0.45 0.31 0.31 0.37 0.48 0.43 0.17 0.06 0.02 0.01 0.00 0.00 0.00 0.00 0.00 0.00 0.00 0.00 0.00 0.00 0.00 0.00 0.00 0.00 0.00
0.20 0.16 0.10 0.09 0.04 0.12 0.18 0.29 0.38 0.46 0.52 0.37 0.20 0.14 0.09 0.16 0.40 0.46 0.53 0.56 0.52 0.53 0.45 0.43 0.40 0.22 0.10 0.05 0.03 0.01 0.00 0.00 0.00 0.00 0.00 0.00 0.00 0.00 0.00 0.00 0.00 0.00 0.00
0.49 0.28 0.18 0.11 0.10 0.08 0.13 0.36 0.56 0.43 0.31 0.37 0.33 0.23 0.20 0.17 0.15 0.21 0.20 0.19 0.27 0.41 0.39 0.30 0.28 0.24 0.14 0.10 0.07 0.03 0.01 0.00 0.00 0.00 0.00 0.00 0.00 0.00 0.01 0.01 0.02 0.04 0.04
0.63 0.41 0.35 0.24 0.24 0.20 0.13 0.22 0.36 0.60 0.79 0.49 0.31 0.33 0.29 0.22 0.17 0.16 0.15 0.11 0.08 0.12 0.16 0.17 0.20 0.25 0.27 0.19 0.14 0.14 0.07 0.02 0.01 0.00 0.00 0.00 0.00 0.01 0.01 0.03 0.10 0.17 0.13
0.62 0.31 0.35 0.56 0.47 0.35 0.31 0.25 0.25 0.32 0.48 0.66 0.61 0.42 0.47 0.43 0.33 0.31 0.37 0.33 0.30 0.29 0.30 0.37 0.37 0.36 0.32 0.25 0.28 0.21 0.15 0.05 0.04 0.03 0.01 0.02 0.04 0.06 0.09 0.11 0.11 0.09 0.04
0.87 0.52 0.42 0.86 0.83 0.53 0.49 0.66 0.35 0.23 0.25 0.40 0.55 0.75 0.65 0.63 0.62 0.61 0.62 0.62 0.51 0.41 0.36 0.37 0.53 0.66 0.74 0.62 0.49 0.37 0.26 0.18 0.12 0.14 0.07 0.04 0.05 0.04 0.04 0.04 0.03 0.01 0.01
1.00 1.03 0.82 0.93 0.98 0.79 0.67 0.87 0.78 0.35 0.29 0.37 0.52 0.62 0.54 0.45 0.52 0.62 0.69 0.68 0.63 0.51 0.48 0.47 0.50 0.57 0.59 0.50 0.37 0.28 0.25 0.25 0.20 0.22 0.18 0.09 0.08 0.04 0.03 0.02 0.01 0.01 0.01

GFSSE_prec_precacc24_126.txt.gz
Total_Precipitation_Accumulation
0.00 0.01 0.03 0.01 0.01 0.01 0.00 0.01 0.06 0.06 0.08 0.07 0.05 0.03 0.01 0.02 0.02 0.00 0.00 0.00 0.02 0.07 0.06 0.06 0.11 0.12 0.08 0.04 0.03 0.03 0.02 0.02 0.02 0.01 0.05 0.12 0.16 0.11 0.09 0.10 0.10 0.08 0.13
0.00 0.01 0.03 0.02 0.02 0.02 0.01 0.02 0.05 0.05 0.04 0.06 0.10 0.06 0.01 0.10 0.04 0.00 0.00 0.02 0.05 0.07 0.08 0.08 0.05 0.02 0.03 0.02 0.01 0.00 0.00 0.00 0.00 0.00 0.01 0.01 0.06 0.05 0.03 0.03 0.10 0.08 0.08
0.00 0.02 0.01 0.02 0.02 0.02 0.02 0.02 0.02 0.01 0.03 0.03 0.10 0.09 0.02 0.11 0.01 0.01 0.03 0.04 0.05 0.04 0.02 0.02 0.02 0.01 0.02 0.01 0.00 0.00 0.00 0.00 0.00 0.01 0.01 0.02 0.04 0.06 0.03 0.03 0.05 0.03 0.02
0.01 0.03 0.01 0.03 0.03 0.04 0.03 0.01 0.01 0.01 0.03 0.02 0.05 0.04 0.03 0.07 0.01 0.07 0.04 0.04 0.06 0.01 0.01 0.01 0.00 0.01 0.01 0.00 0.00 0.00 0.00 0.00 0.00 0.00 0.01 0.00 0.00 0.01 0.01 0.01 0.01 0.01 0.00
0.01 0.06 0.02 0.02 0.04 0.09 0.07 0.04 0.02 0.01 0.04 0.02 0.06 0.08 0.06 0.11 0.12 0.22 0.10 0.09 0.03 0.00 0.00 0.00 0.00 0.00 0.00 0.00 0.00 0.00 0.00 0.00 0.00 0.00 0.00 0.00 0.00 0.00 0.00 0.00 0.00 0.00 0.00
0.04 0.09 0.07 0.03 0.08 0.11 0.09 0.05 0.03 0.02 0.03 0.02 0.04 0.12 0.09 0.14 0.41 0.52 0.24 0.12 0.01 0.00 0.00 0.00 0.00 0.00 0.00 0.00 0.00 0.00 0.00 0.00 0.00 0.00 0.00 0.00 0.00 0.00 0.00 0.00 0.00 0.00 0.00
0.05 0.04 0.09 0.09 0.11 0.12 0.13 0.10 0.09 0.07 0.06 0.04 0.04 0.05 0.06 0.18 0.61 0.50 0.31 0.14 0.01 0.00 0.00 0.00 0.00 0.00 0.00 0.00 0.00 0.00 0.00 0.00 0.00 0.00 0.00 0.00 0.00 0.00 0.00 0.00 0.00 0.00 0.00
0.23 0.21 0.13 0.08 0.13 0.09 0.12 0.13 0.13 0.12 0.09 0.09 0.08 0.10 0.20 0.24 0.44 0.38 0.25 0.18 0.04 0.00 0.00 0.00 0.00 0.00 0.00 0.00 0.00 0.00 0.00 0.00 0.00 0.00 0.00 0.00 0.00 0.00 0.00 0.00 0.00 0.00 0.00
0.57 0.62 0.51 0.25 0.18 0.10 0.05 0.05 0.09 0.12 0.13 0.13 0.12 0.18 0.17 0.14 0.19 0.25 0.20 0.14 0.05 0.00 0.00 0.00 0.00 0.00 0.00 0.00 0.00 0.00 0.00 0.00 0.00 0.00 0.00 0.00 0.00 0.00 0.00 0.00 0.00 0.00 0.00
0.39 0.57 0.65 0.55 0.36 0.10 0.05 0.05 0.06 0.10 0.11 0.14 0.14 0.14 0.09 0.05 0.07 0.23 0.09 0.05 0.04 0.01 0.00 0.00 0.00 0.00 0.00 0.00 0.00 0.00 0.00 0.00 0.00 0.00 0.00 0.00 0.00 0.00 0.00 0.00 0.00 0.00 0.00
0.26 0.37 0.66 0.70 0.53 0.31 0.12 0.08 0.13 0.15 0.11 0.11 0.11 0.10 0.10 0.03 0.02 0.11 0.05 0.01 0.02 0.02 0.00 0.00 0.00 0.00 0.00 0.00 0.00 0.00 0.00 0.00 0.00 0.00 0.00 0.00 0.00 0.00 0.00 0.00 0.00 0.00 0.00
0.08 0.16 0.29 0.53 0.52 0.29 0.27 0.21 0.08 0.22 0.16 0.05 0.06 0.08 0.07 0.04 0.03 0.05 0.05 0.03 0.03 0.02 0.00 0.00 0.00 0.00 0.00 0.00 0.00 0.00 0.00 0.00 0.00 0.00 0.00 0.00 0.00 0.00 0.00 0.00 0.00 0.00 0.00
0.03 0.04 0.11 0.45 0.72 0.49 0.25 0.19 0.14 0.42 0.31 0.11 0.05 0.07 0.10 0.09 0.08 0.11 0.09 0.02 0.01 0.00 0.00 0.00 0.00 0.00 0.00 0.00 0.00 0.00 0.00 0.00 0.00 0.00 0.00 0.00 0.00 0.00 0.00 0.00 0.01 0.00 0.01
0.02 0.02 0.02 0.07 0.33 0.45 0.27 0.07 0.05 0.21 0.26 0.22 0.14 0.07 0.07 0.05 0.09 0.14 0.11 0.04 0.01 0.00 0.00 0.00 0.00 0.00 0.00 0.00 0.00 0.00 0.00 0.00 0.00 0.00 0.00 0.00 0.00 0.00 0.00 0.02 0.07 0.10 0.11
0.00 0.01 0.03 0.07 0.12 0.17 0.16 0.05 0.01 0.08 0.33 0.25 0.23 0.11 0.14 0.12 0.13 0.10 0.13 0.11 0.07 0.03 0.02 0.00 0.00 0.00 0.00 0.00 0.00 0.00 0.00 0.00 0.00 0.00 0.00 0.00 0.00 0.00 0.00 0.01 0.04 0.05 0.05
0.01 0.00 0.00 0.01 0.06 0.10 0.40 0.18 0.01 0.01 0.14 0.33 0.22 0.16 0.12 0.15 0.23 0.15 0.15 0.09 0.06 0.08 0.04 0.02 0.00 0.00 0.00 0.00 0.00 0.00 0.00 0.00 0.00 0.00 0.00 0.00 0.00 0.00 0.00 0.00 0.00 0.02 0.05
0.02 0.01 0.00 0.03 0.07 0.17 0.46 0.43 0.07 0.00 0.03 0.24 0.31 0.24 0.16 0.10 0.09 0.13 0.14 0.15 0.17 0.23 0.19 0.10 0.02 0.00 0.00 0.00 0.00 0.00 0.00 0.00 0.00 0.00 0.00 0.00 0.00 0.00 0.00 0.00 0.00 0.00 0.02
0.13 0.05 0.07 0.10 0.06 0.19 0.60 0.50 0.27 0.07 0.02 0.06 0.36 0.36 0.25 0.25 0.17 0.10 0.07 0.06 0.16 0.24 0.24 0.12 0.03 0.01 0.00 0.00 0.00 0.00 0.00 0.00 0.00 0.00 0.00 0.00 0.00 0.00 0.00 0.00 0.00 0.00 0.00
0.12 0.10 0.06 0.12 0.08 0.09 0.27 0.59 0.48 0.30 0.09 0.02 0.11 0.37 0.55 0.33 0.37 0.23 0.14 0.10 0.16 0.21 0.18 0.14 0.09 0.03 0.00 0.00 0.00 0.00 0.00 0.00 0.00 0.00 0.00 0.00 0.00 0.00 0.00 0.00 0.00 0.00 0.00
0.04 0.08 0.08 0.06 0.06 0.12 0.08 0.35 0.65 0.55 0.34 0.12 0.08 0.08 0.27 0.71 0.56 0.62 0.45 0.31 0.33 0.41 0.53 0.50 0.19 0.09 0.02 0.01 0.00 0.00 0.00 0.00 0.00 0.00 0.00 0.00 0.00 0.00 0.00 0.00 0.00 0.00 0.00
0.05 0.06 0.07 0.06 0.03 0.10 0.09 0.13 0.36 0.46 0.50 0.35 0.20 0.14 0.09 0.16 0.41 0.46 0.56 0.60 0.53 0.53 0.45 0.45 0.42 0.24 0.11 0.06 0.06 0.02 0.00 0.00 0.00 0.00 0.00 0.00 0.00 0.00 0.00 0.00 0.00 0.00 0.00
0.20 0.18 0.15 0.07 0.07 0.05 0.07 0.13 0.26 0.32 0.31 0.35 0.33 0.26 0.25 0.19 0.15 0.21 0.20 0.19 0.27 0.41 0.39 0.30 0.29 0.25 0.14 0.08 0.07 0.04 0.02 0.00 0.00 0.00 0.00 0.00 0.00 0.00 0.01 0.01 0.02 0.05 0.04
0.20 0.32 0.33 0.21 0.18 0.15 0.08 0.13 0.23 0.37 0.50 0.40 0.28 0.32 0.32 0.25 0.19 0.16 0.15 0.11 0.07 0.11 0.15 0.16 0.19 0.22 0.18 0.10 0.10 0.15 0.08 0.02 0.01 0.00 0.00 0.00 0.00 0.01 0.01 0.03 0.11 0.17 0.13
0.26 0.24 0.30 0.51 0.42 0.31 0.24 0.16 0.15 0.20 0.31 0.35 0.40 0.38 0.44 0.38 0.29 0.26 0.36 0.34 0.29 0.27 0.28 0.34 0.31 0.27 0.24 0.14 0.19 0.18 0.13 0.06 0.05 0.03 0.01 0.02 0.04 0.06 0.09 0.11 0.12 0.09 0.04
0.46 0.25 0.29 0.73 0.74 0.47 0.45 0.55 0.25 0.17 0.21 0.30 0.38 0.57 0.62 0.64 0.63 0.61 0.62 0.62 0.51 0.41 0.36 0.36 0.44 0.46 0.48 0.42 0.38 0.34 0.27 0.21 0.16 0.18 0.08 0.04 0.05 0.04 0.05 0.04 0.03 0.01 0.01
0.49 0.47 0.45 0.73 0.90 0.71 0.60 0.76 0.66 0.27 0.25 0.34 0.44 0.49 0.47 0.44 0.52 0.61 0.66 0.66 0.63 0.50 0.45 0.43 0.45 0.46 0.46 0.42 0.33 0.30 0.28 0.28 0.25 0.32 0.31 0.17 0.11 0.05 0.04 0.02 0.01 0.01 0.01

GFSSE_prec_precacc24_129.txt.gz
Total_Precipitation_Accumulation
0.01 0.02 0.03 0.01 0.01 0.01 0.00 0.01 0.07 0.06 0.08 0.06 0.05 0.03 0.01 0.00 0.00 0.00 0.00 0.00 0.02 0.05 0.04 0.07 0.15 0.15 0.08 0.05 0.06 0.03 0.04 0.03 0.02 0.03 0.06 0.16 0.20 0.13 0.09 0.10 0.10 0.08 0.12
0.01 0.02 0.03 0.02 0.02 0.02 0.01 0.03 0.06 0.05 0.04 0.06 0.11 0.07 0.01 0.03 0.01 0.00 0.00 0.02 0.05 0.07 0.09 0.10 0.05 0.02 0.02 0.01 0.01 0.00 0.00 0.00 0.00 0.01 0.01 0.01 0.06 0.05 0.02 0.03 0.09 0.06 0.05
0.01 0.03 0.01 0.02 0.02 0.02 0.02 0.03 0.02 0.01 0.03 0.04 0.10 0.10 0.02 0.05 0.00 0.01 0.02 0.03 0.04 0.06 0.03 0.03 0.02 0.01 0.01 0.00 0.00 0.00 0.00 0.03 0.03 0.06 0.03 0.02 0.04 0.06 0.03 0.02 0.03 0.02 0.01
0.01 0.04 0.01 0.03 0.03 0.05 0.03 0.01 0.02 0.01 0.02 0.02 0.04 0.04 0.02 0.05 0.01 0.05 0.03 0.03 0.05 0.02 0.01 0.01 0.00 0.01 0.01 0.00 0.00 0.00 0.00 0.01 0.00 0.01 0.02 0.00 0.00 0.01 0.01 0.01 0.01 0.00 0.00
0.02 0.08 0.02 0.02 0.05 0.10 0.07 0.05 0.03 0.02 0.03 0.02 0.05 0.08 0.03 0.09 0.11 0.21 0.10 0.09 0.03 0.00 0.00 0.00 0.00 0.00 0.00 0.00 0.00 0.00 0.00 0.00 0.00 0.00 0.00 0.00 0.00 0.00 0.00 0.00 0.00 0.00 0.00
0.05 0.13 0.10 0.06 0.13 0.14 0.10 0.06 0.04 0.04 0.04 0.02 0.03 0.11 0.06 0.12 0.40 0.51 0.26 0.12 0.01 0.00 0.00 0.00 0.00 0.00 0.00 0.00 0.00 0.00 0.00 0.00 0.00 0.00 0.00 0.00 0.00 0.00 0.00 0.00 0.00 0.00 0.00
0.05 0.07 0.17 0.16 0.16 0.17 0.17 0.11 0.09 0.08 0.06 0.03 0.02 0.04 0.03 0.17 0.62 0.53 0.32 0.14 0.01 0.00 0.00 0.00 0.00 0.00 0.00 0.00 0.00 0.00 0.00 0.00 0.00 0.00 0.00 0.00 0.00 0.00 0.00 0.00 0.00 0.00 0.00
0.23 0.20 0.11 0.08 0.13 0.13 0.14 0.16 0.13 0.12 0.09 0.07 0.05 0.07 0.17 0.24 0.45 0.39 0.27 0.21 0.05 0.00 0.00 0.00 0.00 0.00 0.00 0.00 0.00 0.00 0.00 0.00 0.00 0.00 0.00 0.00 0.00 0.00 0.00 0.00 0.00 0.00 0.00
0.47 0.49 0.39 0.18 0.10 0.10 0.06 0.05 0.08 0.10 0.13 0.11 0.09 0.12 0.12 0.13 0.19 0.25 0.20 0.17 0.07 0.00 0.00 0.00 0.00 0.00 0.00 0.00 0.00 0.00 0.00 0.00 0.00 0.00 0.00 0.00 0.00 0.00 0.00 0.00 0.00 0.00 0.00
0.27 0.47 0.57 0.45 0.27 0.06 0.05 0.05 0.05 0.06 0.10 0.12 0.10 0.11 0.08 0.05 0.07 0.23 0.09 0.06 0.05 0.01 0.00 0.00 0.00 0.00 0.00 0.00 0.00 0.00 0.00 0.00 0.00 0.00 0.00 0.00 0.00 0.00 0.00 0.00 0.00 0.00 0.00
0.16 0.23 0.47 0.50 0.45 0.24 0.07 0.07 0.12 0.06 0.09 0.09 0.09 0.08 0.09 0.03 0.02 0.11 0.05 0.01 0.02 0.02 0.00 0.00 0.00 0.00 0.00 0.00 0.00 0.00 0.00 0.00 0.00 0.00 0.00 0.00 0.00 0.00 0.00 0.00 0.00 0.00 0.00
0.04 0.07 0.15 0.23 0.31 0.20 0.21 0.15 0.03 0.11 0.10 0.03 0.04 0.07 0.06 0.04 0.03 0.05 0.05 0.03 0.02 0.01 0.00 0.00 0.00 0.00 0.00 0.00 0.00 0.00 0.00 0.00 0.00 0.00 0.00 0.00 0.00 0.00 0.00 0.00 0.00 0.00 0.00
0.03 0.03 0.06 0.10 0.19 0.21 0.18 0.14 0.06 0.23 0.24 0.07 0.03 0.06 0.09 0.08 0.08 0.11 0.09 0.01 0.01 0.00 0.00 0.00 0.00 0.00 0.00 0.00 0.00 0.00 0.00 0.00 0.00 0.00 0.00 0.00 0.00 0.00 0.00 0.00 0.01 0.00 0.01
0.02 0.02 0.02 0.03 0.03 0.08 0.10 0.05 0.04 0.08 0.15 0.17 0.09 0.05 0.06 0.05 0.09 0.14 0.11 0.04 0.01 0.00 0.00 0.00 0.00 0.00 0.00 0.00 0.00 0.00 0.00 0.00 0.00 0.00 0.00 0.00 0.00 0.00 0.00 0.02 0.06 0.08 0.08
0.00 0.01 0.03 0.04 0.04 0.03 0.02 0.02 0.01 0.06 0.10 0.22 0.17 0.10 0.15 0.12 0.14 0.10 0.13 0.11 0.07 0.03 0.02 0.00 0.00 0.00 0.00 0.00 0.00 0.00 0.00 0.00 0.00 0.00 0.00 0.00 0.00 0.00 0.00 0.01 0.04 0.05 0.04
0.00 0.00 0.00 0.01 0.01 0.01 0.01 0.01 0.00 0.01 0.08 0.28 0.24 0.16 0.14 0.20 0.25 0.16 0.15 0.10 0.06 0.08 0.04 0.02 0.00 0.00 0.00 0.00 0.00 0.00 0.00 0.00 0.00 0.00 0.00 0.00 0.00 0.00 0.00 0.00 0.00 0.02 0.05
0.00 0.00 0.00 0.00 0.00 0.00 0.01 0.00 0.01 0.00 0.03 0.25 0.34 0.25 0.18 0.16 0.12 0.14 0.15 0.16 0.18 0.25 0.21 0.11 0.02 0.00 0.00 0.00 0.00 0.00 0.00 0.00 0.00 0.00 0.00 0.00 0.00 0.00 0.00 0.00 0.00 0.00 0.02
0.00 0.00 0.00 0.00 0.00 0.00 0.01 0.00 0.03 0.04 0.02 0.06 0.38 0.39 0.28 0.26 0.17 0.11 0.07 0.07 0.20 0.35 0.34 0.17 0.06 0.04 0.00 0.00 0.00 0.00 0.00 0.00 0.00 0.00 0.00 0.00 0.00 0.00 0.00 0.00 0.00 0.00 0.00
0.00 0.00 0.00 0.00 0.02 0.01 0.04 0.03 0.05 0.11 0.06 0.02 0.12 0.39 0.57 0.38 0.41 0.26 0.15 0.10 0.18 0.28 0.26 0.21 0.18 0.16 0.09 0.02 0.00 0.00 0.00 0.00 0.00 0.00 0.00 0.00 0.00 0.00 0.00 0.00 0.00 0.00 0.00
0.00 0.00 0.00 0.01 0.02 0.09 0.03 0.06 0.10 0.16 0.12 0.06 0.07 0.09 0.30 0.77 0.60 0.64 0.47 0.32 0.33 0.41 0.56 0.59 0.27 0.24 0.13 0.09 0.03 0.00 0.00 0.00 0.00 0.00 0.00 0.00 0.00 0.00 0.00 0.00 0.00 0.00 0.00
0.00 0.00 0.00 0.01 0.02 0.09 0.06 0.05 0.12 0.18 0.16 0.09 0.09 0.11 0.11 0.19 0.47 0.51 0.59 0.66 0.60 0.58 0.49 0.50 0.48 0.36 0.17 0.11 0.11 0.02 0.01 0.00 0.00 0.00 0.00 0.00 0.00 0.00 0.00 0.00 0.00 0.00 0.00
0.04 0.02 0.01 0.00 0.02 0.03 0.04 0.04 0.10 0.20 0.21 0.16 0.13 0.16 0.19 0.15 0.18 0.30 0.27 0.26 0.37 0.47 0.42 0.31 0.36 0.30 0.17 0.13 0.10 0.06 0.03 0.01 0.00 0.00 0.00 0.00 0.00 0.00 0.01 0.01 0.02 0.05 0.04
0.01 0.06 0.08 0.07 0.07 0.07 0.03 0.07 0.12 0.24 0.31 0.25 0.20 0.21 0.27 0.22 0.20 0.21 0.20 0.16 0.12 0.14 0.16 0.15 0.18 0.22 0.18 0.10 0.10 0.16 0.08 0.02 0.01 0.00 0.00 0.00 0.00 0.01 0.01 0.03 0.11 0.19 0.16
0.02 0.04 0.07 0.15 0.15 0.17 0.15 0.12 0.10 0.14 0.23 0.16 0.14 0.16 0.29 0.34 0.30 0.30 0.31 0.28 0.22 0.22 0.17 0.16 0.18 0.20 0.20 0.13 0.15 0.16 0.12 0.07 0.05 0.04 0.01 0.02 0.04 0.06 0.09 0.11 0.12 0.10 0.07
0.10 0.05 0.11 0.32 0.40 0.27 0.31 0.41 0.20 0.16 0.19 0.25 0.29 0.30 0.34 0.46 0.52 0.53 0.56 0.56 0.47 0.35 0.35 0.31 0.30 0.29 0.29 0.31 0.31 0.28 0.25 0.21 0.18 0.20 0.12 0.06 0.05 0.04 0.05 0.04 0.03 0.02 0.01
0.14 0.22 0.22 0.47 0.65 0.51 0.45 0.62 0.59 0.26 0.24 0.32 0.38 0.36 0.29 0.33 0.48 0.62 0.74 0.68 0.63 0.47 0.44 0.41 0.41 0.40 0.35 0.36 0.31 0.30 0.28 0.29 0.26 0.35 0.38 0.24 0.17 0.08 0.05 0.03 0.01 0.01 0.01

GFSSE_prec_precacc24_132.txt.gz
Total_Precipitation_Accumulation
0.02 0.03 0.04 0.03 0.02 0.02 0.01 0.03 0.11 0.06 0.07 0.07 0.05 0.03 0.01 0.00 0.00 0.00 0.00 0.00 0.00 0.04 0.05 0.07 0.16 0.14 0.08 0.05 0.06 0.06 0.06 0.02 0.02 0.04 0.10 0.20 0.19 0.12 0.08 0.09 0.09 0.07 0.09
0.02 0.03 0.04 0.03 0.02 0.03 0.05 0.06 0.09 0.06 0.04 0.06 0.11 0.07 0.01 0.00 0.00 0.00 0.01 0.02 0.03 0.07 0.12 0.10 0.05 0.02 0.02 0.01 0.01 0.00 0.00 0.00 0.02 0.03 0.02 0.01 0.06 0.05 0.02 0.03 0.07 0.04 0.04
0.02 0.04 0.03 0.04 0.02 0.03 0.05 0.04 0.04 0.02 0.03 0.04 0.10 0.10 0.02 0.00 0.00 0.01 0.02 0.02 0.06 0.07 0.04 0.03 0.02 0.01 0.01 0.00 0.00 0.00 0.00 0.03 0.05 0.06 0.03 0.02 0.04 0.05 0.02 0.02 0.02 0.01 0.01
0.02 0.05 0.02 0.04 0.04 0.05 0.04 0.03 0.05 0.02 0.02 0.02 0.04 0.05 0.02 0.01 0.00 0.05 0.03 0.02 0.06 0.03 0.01 0.01 0.00 0.01 0.01 0.00 0.00 0.00 0.00 0.01 0.01 0.01 0.02 0.00 0.00 0.00 0.00 0.00 0.00 0.00 0.00
0.02 0.09 0.03 0.05 0.07 0.11 0.08 0.06 0.04 0.03 0.03 0.02 0.05 0.07 0.03 0.05 0.08 0.18 0.09 0.08 0.03 0.01 0.00 0.00 0.00 0.00 0.00 0.00 0.00 0.00 0.00 0.00 0.00 0.00 0.00 0.00 0.00 0.00 0.00 0.00 0.00 0.00 0.00
0.05 0.17 0.13 0.11 0.18 0.16 0.10 0.07 0.06 0.05 0.03 0.01 0.02 0.09 0.05 0.09 0.35 0.47 0.24 0.12 0.01 0.00 0.00 0.00 0.00 0.00 0.00 0.00 0.00 0.00 0.00 0.00 0.00 0.00 0.00 0.00 0.00 0.00 0.00 0.00 0.00 0.00 0.00
0.06 0.08 0.21 0.22 0.20 0.22 0.21 0.12 0.11 0.10 0.07 0.03 0.02 0.02 0.03 0.14 0.54 0.50 0.33 0.14 0.01 0.00 0.00 0.00 0.00 0.00 0.00 0.00 0.00 0.00 0.00 0.00 0.00 0.00 0.00 0.00 0.00 0.00 0.00 0.00 0.00 0.00 0.00
0.23 0.19 0.11 0.07 0.10 0.12 0.16 0.18 0.13 0.12 0.09 0.06 0.04 0.04 0.16 0.21 0.42 0.40 0.29 0.23 0.05 0.00 0.00 0.00 0.00 0.00 0.00 0.00 0.00 0.00 0.00 0.00 0.00 0.00 0.00 0.00 0.00 0.00 0.00 0.00 0.00 0.00 0.00
0.44 0.46 0.34 0.17 0.09 0.06 0.06 0.07 0.12 0.11 0.11 0.10 0.07 0.06 0.11 0.11 0.18 0.25 0.21 0.18 0.09 0.00 0.00 0.00 0.00 0.00 0.00 0.00 0.00 0.00 0.00 0.00 0.00 0.00 0.00 0.00 0.00 0.00 0.00 0.00 0.00 0.00 0.00
0.22 0.38 0.47 0.39 0.26 0.06 0.04 0.04 0.05 0.06 0.08 0.11 0.08 0.04 0.06 0.05 0.07 0.23 0.09 0.06 0.07 0.02 0.00 0.00 0.00 0.00 0.00 0.00 0.00 0.00 0.00 0.00 0.00 0.00 0.00 0.00 0.00 0.00 0.00 0.00 0.00 0.00 0.00
0.13 0.19 0.37 0.41 0.37 0.20 0.06 0.07 0.11 0.04 0.05 0.08 0.06 0.05 0.08 0.03 0.02 0.11 0.05 0.01 0.02 0.02 0.00 0.00 0.00 0.00 0.00 0.00 0.00 0.00 0.00 0.00 0.00 0.00 0.00 0.00 0.00 0.00 0.00 0.00 0.00 0.00 0.00
0.04 0.07 0.10 0.17 0.27 0.16 0.20 0.15 0.02 0.07 0.02 0.02 0.03 0.06 0.06 0.04 0.03 0.05 0.05 0.03 0.02 0.02 0.01 0.00 0.00 0.00 0.00 0.00 0.00 0.00 0.00 0.00 0.00 0.00 0.00 0.00 0.00 0.00 0.00 0.00 0.00 0.00 0.00
0.03 0.03 0.05 0.07 0.10 0.12 0.15 0.13 0.06 0.21 0.16 0.02 0.02 0.05 0.08 0.08 0.07 0.11 0.09 0.01 0.01 0.00 0.00 0.00 0.00 0.00 0.00 0.00 0.00 0.00 0.00 0.00 0.00 0.00 0.00 0.00 0.00 0.00 0.00 0.00 0.00 0.00 0.00
0.01 0.02 0.02 0.02 0.02 0.03 0.04 0.03 0.04 0.07 0.08 0.07 0.07 0.04 0.04 0.04 0.08 0.14 0.11 0.04 0.01 0.00 0.00 0.00 0.00 0.00 0.00 0.00 0.00 0.00 0.00 0.00 0.00 0.00 0.00 0.00 0.00 0.00 0.00 0.02 0.06 0.08 0.08
0.00 0.01 0.03 0.04 0.04 0.03 0.01 0.00 0.01 0.06 0.06 0.09 0.11 0.09 0.14 0.12 0.12 0.10 0.13 0.11 0.07 0.03 0.02 0.00 0.00 0.00 0.00 0.00 0.00 0.00 0.00 0.00 0.00 0.00 0.00 0.00 0.00 0.00 0.00 0.01 0.04 0.05 0.04
0.00 0.00 0.00 0.01 0.01 0.01 0.01 0.00 0.00 0.00 0.04 0.07 0.12 0.13 0.15 0.29 0.33 0.16 0.15 0.10 0.06 0.09 0.04 0.02 0.00 0.00 0.00 0.00 0.00 0.00 0.00 0.00 0.00 0.00 0.00 0.00 0.00 0.00 0.00 0.00 0.00 0.02 0.05
0.00 0.00 0.00 0.00 0.00 0.00 0.00 0.00 0.00 0.00 0.02 0.04 0.08 0.16 0.16 0.19 0.17 0.16 0.15 0.16 0.18 0.26 0.25 0.14 0.04 0.01 0.00 0.00 0.00 0.00 0.00 0.00 0.00 0.00 0.00 0.00 0.00 0.00 0.00 0.00 0.00 0.00 0.01
0.00 0.00 0.00 0.00 0.00 0.00 0.00 0.00 0.00 0.01 0.02 0.02 0.06 0.14 0.21 0.29 0.23 0.14 0.08 0.07 0.21 0.37 0.40 0.25 0.11 0.06 0.00 0.00 0.00 0.00 0.00 0.00 0.00 0.00 0.00 0.00 0.00 0.00 0.00 0.00 0.00 0.00 0.00
0.00 0.00 0.00 0.00 0.00 0.00 0.00 0.00 0.01 0.01 0.02 0.01 0.04 0.17 0.40 0.35 0.45 0.34 0.20 0.13 0.21 0.32 0.29 0.24 0.25 0.20 0.12 0.08 0.03 0.01 0.00 0.00 0.00 0.00 0.00 0.00 0.00 0.00 0.00 0.00 0.00 0.00 0.00
0.00 0.00 0.00 0.00 0.00 0.00 0.00 0.00 0.01 0.02 0.01 0.02 0.05 0.08 0.27 0.77 0.61 0.69 0.51 0.36 0.39 0.46 0.58 0.59 0.27 0.29 0.27 0.28 0.18 0.06 0.01 0.00 0.00 0.00 0.00 0.00 0.00 0.00 0.00 0.00 0.00 0.00 0.00
0.00 0.00 0.00 0.00 0.00 0.00 0.00 0.00 0.03 0.03 0.01 0.02 0.04 0.08 0.10 0.19 0.47 0.55 0.64 0.71 0.64 0.60 0.51 0.55 0.57 0.43 0.24 0.26 0.28 0.13 0.07 0.01 0.00 0.00 0.00 0.00 0.00 0.00 0.00 0.00 0.00 0.00 0.00
0.00 0.00 0.00 0.00 0.00 0.00 0.00 0.00 0.01 0.05 0.02 0.02 0.03 0.09 0.15 0.15 0.18 0.32 0.30 0.31 0.43 0.55 0.53 0.43 0.42 0.38 0.24 0.19 0.16 0.13 0.06 0.01 0.00 0.00 0.00 0.00 0.00 0.00 0.01 0.01 0.02 0.05 0.04
0.00 0.00 0.00 0.00 0.00 0.00 0.00 0.00 0.01 0.06 0.08 0.07 0.07 0.09 0.12 0.18 0.20 0.22 0.26 0.25 0.19 0.21 0.25 0.24 0.27 0.33 0.23 0.16 0.16 0.15 0.05 0.02 0.01 0.00 0.00 0.00 0.00 0.01 0.01 0.03 0.11 0.19 0.16
0.00 0.00 0.00 0.00 0.00 0.00 0.00 0.01 0.01 0.04 0.08 0.05 0.06 0.10 0.12 0.17 0.26 0.30 0.35 0.37 0.33 0.31 0.18 0.12 0.10 0.19 0.19 0.12 0.10 0.08 0.06 0.06 0.05 0.04 0.01 0.02 0.04 0.06 0.09 0.11 0.12 0.10 0.07
0.05 0.03 0.01 0.02 0.01 0.01 0.01 0.01 0.02 0.07 0.08 0.14 0.16 0.18 0.23 0.24 0.26 0.38 0.41 0.43 0.37 0.30 0.36 0.33 0.26 0.24 0.22 0.19 0.18 0.15 0.17 0.18 0.17 0.20 0.12 0.06 0.05 0.04 0.05 0.04 0.04 0.02 0.02
0.09 0.16 0.14 0.12 0.08 0.09 0.07 0.10 0.22 0.08 0.14 0.16 0.20 0.18 0.17 0.24 0.31 0.37 0.52 0.55 0.53 0.43 0.46 0.55 0.51 0.45 0.36 0.30 0.25 0.27 0.27 0.29 0.26 0.35 0.39 0.25 0.18 0.08 0.05 0.03 0.01 0.02 0.02

GFSSE_prec_precacc24_138.txt.gz
Total_Precipitation_Accumulation
0.04 0.04 0.09 0.09 0.04 0.08 0.11 0.11 0.12 0.06 0.07 0.06 0.05 0.03 0.01 0.00 0.00 0.00 0.00 0.00 0.00 0.07 0.06 0.06 0.15 0.14 0.07 0.05 0.06 0.08 0.08 0.02 0.05 0.15 0.19 0.19 0.17 0.10 0.07 0.06 0.07 0.03 0.03
0.03 0.04 0.07 0.09 0.15 0.14 0.11 0.15 0.16 0.06 0.04 0.06 0.11 0.06 0.01 0.00 0.00 0.00 0.00 0.00 0.04 0.11 0.10 0.09 0.04 0.02 0.02 0.01 0.01 0.01 0.00 0.01 0.05 0.03 0.02 0.01 0.04 0.03 0.01 0.01 0.03 0.02 0.00
0.03 0.05 0.05 0.08 0.09 0.11 0.13 0.09 0.07 0.03 0.03 0.04 0.10 0.09 0.02 0.00 0.00 0.01 0.00 0.01 0.08 0.10 0.03 0.02 0.02 0.01 0.01 0.00 0.00 0.00 0.00 0.03 0.05 0.06 0.03 0.02 0.02 0.02 0.01 0.00 0.00 0.00 0.00
0.02 0.06 0.03 0.09 0.09 0.09 0.08 0.09 0.11 0.06 0.02 0.01 0.03 0.03 0.01 0.00 0.00 0.02 0.00 0.03 0.11 0.05 0.01 0.01 0.00 0.00 0.00 0.00 0.00 0.00 0.00 0.01 0.01 0.01 0.02 0.00 0.00 0.00 0.00 0.00 0.00 0.00 0.00
0.03 0.11 0.04 0.10 0.11 0.16 0.12 0.11 0.08 0.08 0.07 0.01 0.03 0.05 0.01 0.00 0.06 0.11 0.06 0.07 0.07 0.02 0.00 0.00 0.00 0.00 0.00 0.00 0.00 0.00 0.00 0.00 0.00 0.00 0.00 0.00 0.00 0.00 0.00 0.00 0.00 0.00 0.00
0.07 0.19 0.20 0.19 0.24 0.21 0.14 0.09 0.09 0.06 0.05 0.01 0.01 0.04 0.01 0.01 0.27 0.38 0.21 0.12 0.02 0.00 0.00 0.00 0.00 0.00 0.00 0.00 0.00 0.00 0.00 0.00 0.00 0.00 0.00 0.00 0.00 0.00 0.00 0.00 0.00 0.00 0.00
0.07 0.10 0.28 0.30 0.31 0.31 0.25 0.17 0.15 0.13 0.09 0.03 0.01 0.01 0.01 0.08 0.35 0.44 0.32 0.14 0.01 0.00 0.00 0.00 0.00 0.00 0.00 0.00 0.00 0.00 0.00 0.00 0.00 0.00 0.00 0.00 0.00 0.00 0.00 0.00 0.00 0.00 0.00
0.15 0.19 0.13 0.07 0.12 0.20 0.25 0.26 0.19 0.16 0.13 0.12 0.08 0.04 0.11 0.16 0.24 0.39 0.33 0.26 0.06 0.00 0.00 0.00 0.00 0.00 0.00 0.00 0.00 0.00 0.00 0.00 0.00 0.00 0.00 0.00 0.00 0.00 0.00 0.00 0.00 0.00 0.00
0.10 0.18 0.21 0.18 0.14 0.11 0.12 0.14 0.19 0.17 0.15 0.14 0.10 0.07 0.06 0.07 0.07 0.23 0.24 0.21 0.13 0.01 0.00 0.00 0.00 0.00 0.00 0.00 0.00 0.00 0.00 0.00 0.00 0.00 0.00 0.00 0.00 0.00 0.00 0.00 0.00 0.00 0.00
0.01 0.06 0.12 0.22 0.26 0.09 0.07 0.10 0.10 0.09 0.10 0.11 0.06 0.04 0.03 0.03 0.02 0.13 0.09 0.06 0.10 0.08 0.02 0.00 0.00 0.00 0.00 0.00 0.00 0.00 0.00 0.00 0.00 0.00 0.00 0.00 0.00 0.00 0.00 0.00 0.00 0.00 0.00
0.00 0.01 0.10 0.19 0.17 0.14 0.06 0.08 0.13 0.07 0.09 0.09 0.05 0.05 0.03 0.02 0.01 0.07 0.04 0.01 0.03 0.03 0.01 0.01 0.00 0.00 0.00 0.00 0.00 0.00 0.00 0.00 0.00 0.00 0.00 0.00 0.00 0.00 0.00 0.00 0.00 0.00 0.00
0.00 0.00 0.00 0.04 0.17 0.13 0.18 0.13 0.02 0.07 0.02 0.00 0.01 0.03 0.02 0.01 0.02 0.05 0.05 0.03 0.02 0.01 0.01 0.01 0.00 0.00 0.00 0.00 0.00 0.00 0.00 0.00 0.00 0.00 0.00 0.00 0.00 0.00 0.00 0.00 0.00 0.00 0.00
0.00 0.00 0.00 0.00 0.01 0.02 0.09 0.12 0.05 0.18 0.15 0.03 0.03 0.03 0.04 0.04 0.06 0.11 0.09 0.01 0.01 0.00 0.00 0.01 0.00 0.00 0.00 0.00 0.00 0.00 0.00 0.00 0.00 0.00 0.00 0.00 0.00 0.00 0.00 0.00 0.00 0.00 0.00
0.00 0.00 0.00 0.00 0.00 0.00 0.00 0.01 0.04 0.07 0.06 0.06 0.05 0.03 0.04 0.03 0.07 0.14 0.11 0.04 0.01 0.00 0.00 0.00 0.00 0.00 0.00 0.00 0.00 0.00 0.00 0.00 0.00 0.00 0.00 0.00 0.00 0.00 0.00 0.01 0.05 0.05 0.06
0.00 0.00 0.00 0.00 0.00 0.00 0.00 0.00 0.01 0.06 0.06 0.09 0.07 0.06 0.13 0.11 0.12 0.10 0.13 0.11 0.07 0.03 0.02 0.00 0.00 0.00 0.00 0.00 0.00 0.00 0.00 0.00 0.00 0.00 0.00 0.00 0.00 0.00 0.00 0.01 0.04 0.04 0.04
0.00 0.00 0.00 0.00 0.00 0.00 0.00 0.00 0.00 0.00 0.04 0.07 0.04 0.05 0.13 0.26 0.33 0.17 0.16 0.10 0.06 0.08 0.05 0.03 0.02 0.01 0.00 0.00 0.00 0.00 0.00 0.00 0.00 0.00 0.00 0.00 0.00 0.00 0.00 0.00 0.00 0.02 0.04
0.00 0.00 0.00 0.00 0.00 0.00 0.00 0.00 0.00 0.00 0.02 0.04 0.04 0.01 0.04 0.14 0.16 0.22 0.18 0.16 0.19 0.31 0.38 0.28 0.18 0.14 0.05 0.03 0.01 0.00 0.01 0.01 0.00 0.00 0.00 0.00 0.00 0.00 0.00 0.00 0.00 0.00 0.01
0.00 0.00 0.00 0.00 0.00 0.00 0.00 0.00 0.00 0.01 0.02 0.02 0.05 0.05 0.05 0.07 0.08 0.11 0.10 0.06 0.21 0.47 0.62 0.48 0.33 0.27 0.16 0.12 0.08 0.03 0.03 0.02 0.00 0.00 0.00 0.00 0.00 0.00 0.00 0.00 0.00 0.00 0.00
0.00 0.00 0.00 0.00 0.00 0.00 0.00 0.00 0.01 0.01 0.02 0.01 0.04 0.05 0.02 0.06 0.10 0.15 0.13 0.10 0.23 0.40 0.46 0.45 0.42 0.39 0.27 0.19 0.13 0.12 0.06 0.02 0.01 0.00 0.00 0.00 0.00 0.00 0.00 0.00 0.00 0.00 0.00
0.00 0.00 0.00 0.00 0.00 0.00 0.00 0.00 0.01 0.02 0.01 0.01 0.04 0.04 0.05 0.11 0.09 0.09 0.11 0.11 0.18 0.27 0.61 0.72 0.36 0.40 0.35 0.45 0.48 0.28 0.20 0.11 0.04 0.02 0.03 0.02 0.01 0.01 0.01 0.00 0.00 0.00 0.00
0.00 0.00 0.00 0.00 0.00 0.00 0.00 0.00 0.00 0.01 0.01 0.01 0.02 0.05 0.05 0.04 0.09 0.11 0.14 0.20 0.22 0.19 0.39 0.68 0.74 0.58 0.36 0.41 0.49 0.28 0.23 0.16 0.09 0.07 0.08 0.06 0.03 0.01 0.00 0.00 0.00 0.00 0.00
0.00 0.00 0.00 0.00 0.00 0.00 0.00 0.00 0.00 0.00 0.01 0.01 0.02 0.03 0.09 0.07 0.08 0.11 0.12 0.16 0.26 0.36 0.45 0.43 0.51 0.53 0.40 0.41 0.33 0.24 0.12 0.06 0.02 0.02 0.08 0.08 0.05 0.03 0.02 0.04 0.03 0.05 0.04
0.00 0.00 0.00 0.00 0.00 0.00 0.00 0.00 0.00 0.01 0.01 0.03 0.03 0.04 0.04 0.07 0.08 0.09 0.15 0.18 0.18 0.22 0.24 0.28 0.35 0.46 0.38 0.40 0.38 0.33 0.11 0.02 0.01 0.00 0.00 0.01 0.01 0.03 0.02 0.04 0.11 0.19 0.16
0.00 0.00 0.00 0.00 0.00 0.00 0.00 0.00 0.01 0.00 0.01 0.01 0.03 0.05 0.07 0.08 0.11 0.13 0.17 0.22 0.25 0.31 0.22 0.21 0.23 0.37 0.39 0.30 0.28 0.23 0.24 0.13 0.06 0.04 0.01 0.01 0.03 0.06 0.09 0.11 0.12 0.10 0.07
0.00 0.00 0.00 0.00 0.00 0.00 0.01 0.00 0.01 0.01 0.00 0.02 0.05 0.06 0.08 0.09 0.11 0.16 0.20 0.23 0.18 0.18 0.30 0.31 0.30 0.32 0.35 0.34 0.32 0.29 0.28 0.27 0.21 0.21 0.11 0.06 0.05 0.04 0.04 0.04 0.03 0.02 0.02
0.00 0.00 0.00 0.00 0.00 0.00 0.01 0.01 0.01 0.01 0.01 0.01 0.02 0.04 0.04 0.04 0.07 0.08 0.18 0.19 0.16 0.15 0.18 0.35 0.40 0.38 0.40 0.38 0.33 0.35 0.30 0.31 0.30 0.34 0.37 0.23 0.17 0.07 0.04 0.02 0.01 0.01 0.02

GFSSE_prec_precacc24_141.txt.gz
Total_Precipitation_Accumulation
0.05 0.04 0.12 0.14 0.13 0.18 0.15 0.11 0.12 0.06 0.07 0.06 0.04 0.02 0.01 0.00 0.00 0.00 0.00 0.00 0.02 0.07 0.06 0.06 0.15 0.13 0.07 0.05 0.06 0.07 0.08 0.03 0.08 0.17 0.19 0.18 0.16 0.09 0.05 0.05 0.05 0.02 0.00
0.03 0.04 0.08 0.12 0.18 0.21 0.20 0.16 0.15 0.06 0.04 0.05 0.09 0.06 0.01 0.00 0.00 0.00 0.00 0.01 0.06 0.14 0.11 0.09 0.04 0.01 0.02 0.01 0.01 0.01 0.01 0.02 0.05 0.03 0.02 0.01 0.03 0.02 0.00 0.00 0.01 0.00 0.00
0.03 0.05 0.06 0.10 0.10 0.13 0.16 0.12 0.07 0.03 0.03 0.04 0.09 0.09 0.02 0.00 0.00 0.01 0.00 0.01 0.10 0.10 0.04 0.02 0.02 0.01 0.01 0.00 0.00 0.00 0.00 0.03 0.05 0.06 0.03 0.02 0.02 0.01 0.00 0.00 0.00 0.00 0.00
0.02 0.07 0.03 0.11 0.10 0.11 0.10 0.10 0.12 0.07 0.02 0.01 0.02 0.03 0.01 0.00 0.00 0.00 0.00 0.02 0.13 0.04 0.01 0.00 0.00 0.00 0.00 0.00 0.00 0.00 0.00 0.01 0.01 0.01 0.02 0.00 0.00 0.00 0.00 0.00 0.00 0.00 0.00
0.05 0.15 0.05 0.12 0.14 0.16 0.14 0.15 0.15 0.13 0.09 0.02 0.03 0.05 0.01 0.00 0.03 0.02 0.02 0.06 0.10 0.02 0.00 0.00 0.00 0.00 0.00 0.00 0.01 0.00 0.00 0.00 0.00 0.00 0.00 0.00 0.00 0.00 0.00 0.00 0.00 0.00 0.00
0.09 0.25 0.26 0.21 0.26 0.20 0.14 0.12 0.15 0.12 0.07 0.02 0.01 0.01 0.01 0.01 0.18 0.22 0.14 0.11 0.02 0.00 0.00 0.00 0.00 0.00 0.00 0.00 0.00 0.00 0.00 0.00 0.00 0.00 0.00 0.00 0.00 0.00 0.00 0.00 0.00 0.00 0.00
0.07 0.11 0.31 0.31 0.31 0.30 0.24 0.17 0.17 0.18 0.16 0.06 0.01 0.01 0.01 0.06 0.20 0.33 0.31 0.14 0.01 0.00 0.00 0.00 0.00 0.00 0.00 0.00 0.00 0.00 0.00 0.00 0.00 0.00 0.00 0.00 0.00 0.00 0.00 0.00 0.00 0.00 0.00
0.05 0.11 0.10 0.07 0.10 0.19 0.26 0.27 0.20 0.18 0.19 0.17 0.11 0.07 0.12 0.14 0.16 0.29 0.32 0.26 0.06 0.00 0.00 0.00 0.00 0.00 0.00 0.00 0.00 0.00 0.00 0.00 0.00 0.00 0.00 0.00 0.00 0.00 0.00 0.00 0.00 0.00 0.00
0.01 0.04 0.11 0.14 0.13 0.10 0.11 0.14 0.21 0.20 0.16 0.16 0.13 0.09 0.08 0.07 0.05 0.15 0.23 0.22 0.13 0.02 0.01 0.00 0.00 0.00 0.00 0.00 0.00 0.00 0.00 0.00 0.00 0.00 0.00 0.00 0.00 0.00 0.00 0.00 0.00 0.00 0.00
0.00 0.00 0.03 0.11 0.18 0.09 0.06 0.09 0.10 0.09 0.12 0.13 0.10 0.07 0.04 0.03 0.01 0.08 0.07 0.06 0.11 0.09 0.04 0.02 0.00 0.00 0.00 0.00 0.00 0.00 0.00 0.00 0.00 0.00 0.00 0.00 0.00 0.00 0.00 0.00 0.00 0.00 0.00
0.00 0.00 0.01 0.06 0.06 0.09 0.03 0.05 0.05 0.04 0.09 0.09 0.07 0.07 0.05 0.02 0.01 0.05 0.03 0.01 0.03 0.04 0.02 0.03 0.04 0.01 0.00 0.00 0.00 0.00 0.00 0.00 0.00 0.00 0.00 0.00 0.00 0.00 0.00 0.00 0.00 0.00 0.00
0.00 0.00 0.00 0.00 0.04 0.04 0.09 0.08 0.01 0.03 0.01 0.00 0.01 0.03 0.03 0.01 0.01 0.05 0.05 0.03 0.02 0.01 0.02 0.02 0.02 0.01 0.00 0.00 0.00 0.00 0.00 0.00 0.00 0.00 0.00 0.00 0.00 0.00 0.00 0.00 0.00 0.00 0.00
0.00 0.00 0.00 0.00 0.00 0.00 0.04 0.07 0.03 0.08 0.05 0.02 0.02 0.03 0.04 0.04 0.05 0.09 0.08 0.01 0.01 0.00 0.00 0.01 0.01 0.01 0.00 0.00 0.00 0.00 0.00 0.00 0.00 0.00 0.00 0.00 0.00 0.00 0.00 0.00 0.01 0.00 0.00
0.00 0.00 0.00 0.00 0.00 0.00 0.00 0.01 0.03 0.06 0.02 0.02 0.04 0.03 0.03 0.04 0.05 0.12 0.11 0.05 0.02 0.00 0.00 0.00 0.00 0.00 0.00 0.00 0.00 0.00 0.00 0.00 0.00 0.00 0.00 0.00 0.00 0.00 0.00 0.00 0.04 0.05 0.03
0.00 0.00 0.00 0.00 0.00 0.00 0.00 0.00 0.01 0.06 0.05 0.08 0.06 0.05 0.11 0.08 0.07 0.07 0.13 0.12 0.08 0.03 0.02 0.00 0.00 0.00 0.00 0.02 0.04 0.01 0.00 0.00 0.00 0.00 0.00 0.00 0.00 0.00 0.00 0.00 0.03 0.04 0.04
0.00 0.00 0.00 0.00 0.00 0.00 0.00 0.00 0.00 0.00 0.04 0.07 0.04 0.04 0.10 0.22 0.28 0.14 0.14 0.11 0.06 0.08 0.04 0.03 0.02 0.02 0.01 0.01 0.01 0.01 0.00 0.00 0.00 0.00 0.00 0.00 0.00 0.00 0.00 0.00 0.00 0.01 0.04
0.00 0.00 0.00 0.00 0.00 0.00 0.00 0.00 0.00 0.00 0.02 0.04 0.04 0.01 0.04 0.14 0.16 0.22 0.18 0.16 0.19 0.31 0.37 0.29 0.21 0.16 0.07 0.05 0.04 0.01 0.01 0.03 0.00 0.01 0.00 0.00 0.00 0.00 0.00 0.00 0.00 0.00 0.01
0.00 0.00 0.00 0.00 0.00 0.00 0.00 0.00 0.00 0.01 0.02 0.02 0.05 0.05 0.05 0.07 0.08 0.11 0.10 0.05 0.19 0.45 0.61 0.48 0.35 0.30 0.19 0.16 0.15 0.14 0.15 0.12 0.06 0.03 0.01 0.00 0.00 0.00 0.00 0.00 0.00 0.00 0.01
0.00 0.00 0.00 0.00 0.00 0.00 0.00 0.00 0.01 0.01 0.02 0.01 0.04 0.05 0.02 0.06 0.10 0.14 0.12 0.10 0.23 0.38 0.40 0.42 0.43 0.42 0.32 0.27 0.26 0.28 0.24 0.15 0.10 0.07 0.03 0.02 0.01 0.00 0.00 0.00 0.00 0.00 0.00
0.00 0.00 0.00 0.00 0.00 0.00 0.00 0.00 0.01 0.02 0.01 0.01 0.04 0.04 0.05 0.11 0.09 0.09 0.11 0.10 0.17 0.20 0.24 0.31 0.23 0.38 0.40 0.52 0.55 0.37 0.32 0.25 0.16 0.11 0.09 0.05 0.02 0.02 0.03 0.04 0.04 0.04 0.02
0.00 0.00 0.00 0.00 0.00 0.00 0.00 0.00 0.00 0.01 0.01 0.01 0.02 0.05 0.05 0.04 0.09 0.11 0.13 0.20 0.20 0.14 0.16 0.30 0.43 0.44 0.32 0.43 0.53 0.34 0.31 0.25 0.17 0.14 0.13 0.09 0.07 0.09 0.06 0.04 0.04 0.06 0.02
0.00 0.00 0.00 0.00 0.00 0.00 0.00 0.00 0.00 0.00 0.01 0.01 0.02 0.03 0.09 0.07 0.07 0.11 0.11 0.15 0.24 0.23 0.23 0.25 0.31 0.37 0.34 0.41 0.36 0.28 0.16 0.10 0.05 0.02 0.08 0.08 0.09 0.10 0.07 0.06 0.05 0.06 0.05
0.00 0.00 0.00 0.00 0.00 0.00 0.00 0.00 0.00 0.00 0.01 0.03 0.03 0.04 0.04 0.06 0.07 0.07 0.12 0.15 0.16 0.19 0.19 0.21 0.25 0.34 0.31 0.40 0.40 0.39 0.17 0.04 0.04 0.02 0.00 0.01 0.04 0.06 0.07 0.06 0.11 0.18 0.16
0.00 0.00 0.00 0.00 0.00 0.00 0.00 0.00 0.01 0.00 0.01 0.01 0.03 0.05 0.07 0.07 0.10 0.10 0.14 0.19 0.22 0.30 0.22 0.20 0.21 0.33 0.38 0.30 0.27 0.23 0.26 0.18 0.10 0.05 0.02 0.02 0.02 0.07 0.15 0.16 0.14 0.10 0.07
0.00 0.00 0.00 0.00 0.00 0.00 0.00 0.00 0.01 0.01 0.01 0.02 0.05 0.06 0.08 0.09 0.11 0.15 0.17 0.20 0.17 0.19 0.32 0.34 0.31 0.32 0.34 0.35 0.34 0.32 0.27 0.27 0.25 0.21 0.13 0.07 0.05 0.02 0.03 0.03 0.03 0.02 0.01
0.00 0.00 0.00 0.00 0.00 0.00 0.00 0.01 0.01 0.01 0.02 0.01 0.02 0.04 0.03 0.04 0.05 0.06 0.14 0.14 0.13 0.13 0.18 0.36 0.39 0.35 0.36 0.32 0.30 0.31 0.23 0.23 0.23 0.28 0.31 0.21 0.16 0.07 0.06 0.03 0.01 0.01 0.01

GFSSE_prec_precacc24_147.txt.gz
Total_Precipitation_Accumulation
0.05 0.05 0.12 0.18 0.15 0.23 0.16 0.10 0.07 0.03 0.04 0.02 0.00 0.00 0.00 0.00 0.00 0.00 0.00 0.01 0.03 0.05 0.03 0.04 0.11 0.11 0.11 0.04 0.06 0.07 0.09 0.10 0.15 0.17 0.18 0.13 0.09 0.05 0.03 0.01 0.00 0.00 0.00
0.03 0.03 0.09 0.15 0.25 0.31 0.31 0.17 0.12 0.03 0.02 0.03 0.05 0.03 0.00 0.00 0.00 0.00 0.00 0.01 0.08 0.15 0.09 0.07 0.02 0.01 0.02 0.01 0.01 0.01 0.01 0.04 0.06 0.03 0.02 0.01 0.01 0.00 0.00 0.00 0.00 0.00 0.00
0.03 0.04 0.08 0.10 0.14 0.21 0.28 0.20 0.07 0.02 0.01 0.03 0.04 0.04 0.01 0.00 0.00 0.01 0.00 0.01 0.16 0.12 0.03 0.01 0.01 0.00 0.01 0.01 0.00 0.00 0.00 0.03 0.05 0.06 0.02 0.00 0.00 0.00 0.00 0.00 0.00 0.00 0.00
0.02 0.05 0.07 0.12 0.11 0.13 0.17 0.19 0.17 0.07 0.02 0.01 0.01 0.02 0.00 0.00 0.00 0.00 0.00 0.03 0.16 0.07 0.01 0.00 0.00 0.00 0.01 0.01 0.00 0.00 0.00 0.01 0.01 0.01 0.02 0.00 0.00 0.00 0.00 0.00 0.00 0.00 0.00
0.05 0.18 0.13 0.14 0.15 0.14 0.13 0.20 0.22 0.27 0.19 0.05 0.02 0.04 0.00 0.00 0.00 0.00 0.00 0.02 0.11 0.02 0.00 0.00 0.00 0.00 0.00 0.01 0.01 0.00 0.00 0.00 0.00 0.00 0.00 0.00 0.00 0.00 0.00 0.00 0.00 0.00 0.00
0.08 0.25 0.33 0.24 0.25 0.17 0.12 0.13 0.16 0.18 0.19 0.14 0.04 0.01 0.00 0.00 0.02 0.02 0.02 0.01 0.03 0.01 0.00 0.00 0.00 0.00 0.00 0.01 0.02 0.00 0.00 0.00 0.00 0.00 0.00 0.00 0.00 0.00 0.00 0.00 0.00 0.00 0.00
0.04 0.12 0.31 0.30 0.26 0.23 0.15 0.10 0.14 0.20 0.22 0.16 0.10 0.05 0.01 0.03 0.08 0.10 0.07 0.04 0.01 0.00 0.00 0.00 0.00 0.00 0.00 0.00 0.01 0.00 0.00 0.00 0.00 0.00 0.00 0.00 0.00 0.00 0.00 0.00 0.00 0.00 0.00
0.01 0.04 0.08 0.06 0.10 0.16 0.17 0.16 0.12 0.15 0.18 0.20 0.16 0.14 0.14 0.13 0.12 0.13 0.12 0.17 0.05 0.00 0.00 0.00 0.00 0.00 0.00 0.00 0.00 0.00 0.00 0.00 0.00 0.00 0.00 0.00 0.00 0.00 0.00 0.00 0.00 0.00 0.00
0.00 0.00 0.02 0.08 0.11 0.08 0.08 0.10 0.15 0.14 0.12 0.11 0.10 0.08 0.05 0.04 0.05 0.07 0.12 0.16 0.12 0.02 0.03 0.02 0.00 0.00 0.00 0.00 0.00 0.00 0.00 0.00 0.00 0.00 0.00 0.00 0.00 0.00 0.00 0.00 0.00 0.00 0.00
0.00 0.00 0.00 0.02 0.07 0.07 0.06 0.07 0.07 0.06 0.05 0.07 0.07 0.04 0.01 0.00 0.00 0.01 0.01 0.03 0.11 0.11 0.09 0.08 0.05 0.02 0.00 0.00 0.00 0.00 0.00 0.00 0.00 0.00 0.00 0.00 0.00 0.00 0.00 0.00 0.00 0.00 0.00
0.00 0.00 0.00 0.00 0.02 0.02 0.01 0.02 0.02 0.04 0.05 0.05 0.06 0.08 0.05 0.02 0.03 0.06 0.05 0.00 0.01 0.04 0.03 0.06 0.08 0.07 0.02 0.00 0.00 0.00 0.00 0.00 0.00 0.00 0.00 0.00 0.00 0.00 0.00 0.00 0.00 0.00 0.00
0.00 0.00 0.00 0.00 0.00 0.02 0.05 0.03 0.00 0.00 0.00 0.00 0.01 0.04 0.08 0.08 0.07 0.04 0.04 0.00 0.00 0.01 0.02 0.03 0.04 0.03 0.01 0.01 0.01 0.00 0.00 0.00 0.00 0.00 0.00 0.00 0.00 0.00 0.00 0.01 0.00 0.00 0.00
0.00 0.00 0.00 0.00 0.00 0.00 0.01 0.04 0.01 0.00 0.00 0.01 0.02 0.02 0.02 0.02 0.04 0.08 0.09 0.05 0.02 0.01 0.00 0.01 0.02 0.04 0.03 0.05 0.05 0.03 0.00 0.00 0.00 0.00 0.00 0.00 0.00 0.00 0.00 0.00 0.01 0.00 0.00
0.00 0.00 0.00 0.00 0.00 0.00 0.00 0.00 0.02 0.03 0.01 0.01 0.02 0.02 0.03 0.03 0.01 0.03 0.04 0.06 0.07 0.06 0.03 0.02 0.01 0.00 0.00 0.02 0.03 0.01 0.01 0.00 0.00 0.00 0.00 0.00 0.00 0.00 0.00 0.00 0.01 0.01 0.02
0.00 0.00 0.00 0.00 0.00 0.00 0.00 0.00 0.01 0.06 0.05 0.04 0.04 0.04 0.02 0.01 0.02 0.03 0.03 0.02 0.03 0.03 0.03 0.05 0.04 0.02 0.02 0.03 0.05 0.04 0.01 0.00 0.00 0.00 0.00 0.00 0.00 0.00 0.00 0.00 0.00 0.00 0.01
0.00 0.00 0.00 0.00 0.00 0.00 0.00 0.00 0.00 0.00 0.04 0.07 0.04 0.04 0.06 0.16 0.13 0.04 0.04 0.04 0.02 0.02 0.03 0.04 0.06 0.07 0.04 0.03 0.01 0.01 0.01 0.01 0.02 0.00 0.00 0.00 0.00 0.00 0.00 0.00 0.00 0.00 0.00
0.00 0.00 0.00 0.00 0.00 0.00 0.00 0.00 0.00 0.00 0.02 0.04 0.04 0.01 0.04 0.12 0.11 0.13 0.09 0.07 0.09 0.20 0.29 0.27 0.21 0.21 0.13 0.10 0.07 0.03 0.02 0.05 0.05 0.05 0.02 0.00 0.00 0.00 0.00 0.00 0.00 0.00 0.00
0.00 0.00 0.00 0.00 0.00 0.00 0.00 0.00 0.00 0.00 0.01 0.02 0.05 0.05 0.05 0.06 0.07 0.09 0.08 0.03 0.14 0.34 0.50 0.45 0.36 0.32 0.22 0.20 0.20 0.18 0.19 0.16 0.11 0.12 0.13 0.09 0.05 0.02 0.00 0.00 0.00 0.00 0.00
0.00 0.00 0.00 0.00 0.00 0.00 0.00 0.00 0.00 0.00 0.00 0.01 0.04 0.05 0.02 0.06 0.10 0.14 0.12 0.10 0.22 0.34 0.37 0.40 0.43 0.43 0.35 0.30 0.29 0.33 0.30 0.23 0.20 0.17 0.14 0.14 0.16 0.14 0.08 0.04 0.04 0.01 0.00
0.00 0.00 0.00 0.00 0.00 0.00 0.00 0.00 0.00 0.00 0.00 0.01 0.03 0.04 0.05 0.11 0.09 0.09 0.10 0.10 0.16 0.19 0.22 0.30 0.23 0.39 0.42 0.55 0.60 0.42 0.37 0.31 0.25 0.23 0.22 0.24 0.27 0.31 0.28 0.22 0.22 0.25 0.20
0.00 0.00 0.00 0.00 0.00 0.00 0.00 0.00 0.00 0.00 0.00 0.00 0.02 0.05 0.05 0.04 0.09 0.11 0.13 0.19 0.20 0.13 0.15 0.28 0.38 0.42 0.32 0.43 0.57 0.39 0.34 0.29 0.22 0.22 0.29 0.34 0.33 0.41 0.57 0.70 0.70 0.61 0.46
0.00 0.00 0.00 0.00 0.00 0.00 0.00 0.00 0.00 0.00 0.00 0.00 0.01 0.03 0.09 0.07 0.07 0.11 0.11 0.14 0.23 0.22 0.21 0.22 0.27 0.32 0.31 0.41 0.42 0.37 0.24 0.15 0.09 0.05 0.10 0.15 0.20 0.31 0.34 0.37 0.35 0.42 0.45
0.00 0.00 0.00 0.00 0.00 0.00 0.00 0.00 0.00 0.00 0.00 0.02 0.02 0.03 0.04 0.06 0.07 0.07 0.11 0.15 0.15 0.17 0.17 0.19 0.23 0.29 0.24 0.36 0.40 0.45 0.25 0.12 0.12 0.12 0.10 0.11 0.12 0.10 0.15 0.21 0.23 0.18 0.16
0.00 0.00 0.00 0.00 0.00 0.00 0.00 0.00 0.00 0.00 0.00 0.00 0.02 0.04 0.07 0.07 0.10 0.10 0.13 0.18 0.20 0.26 0.18 0.17 0.20 0.33 0.39 0.29 0.29 0.29 0.34 0.26 0.19 0.10 0.11 0.16 0.13 0.14 0.14 0.18 0.22 0.19 0.15
0.00 0.00 0.00 0.00 0.00 0.00 0.00 0.00 0.00 0.01 0.00 0.00 0.01 0.03 0.07 0.09 0.10 0.15 0.17 0.19 0.16 0.17 0.30 0.31 0.29 0.33 0.35 0.35 0.37 0.38 0.33 0.35 0.36 0.33 0.26 0.30 0.43 0.21 0.08 0.07 0.10 0.11 0.14
0.00 0.00 0.00 0.00 0.00 0.00 0.00 0.00 0.01 0.01 0.00 0.00 0.00 0.01 0.03 0.04 0.05 0.06 0.13 0.12 0.12 0.11 0.17 0.34 0.38 0.34 0.37 0.33 0.32 0.38 0.31 0.29 0.29 0.34 0.33 0.28 0.35 0.36 0.26 0.21 0.18 0.12 0.08

GFSSE_prec_precacc24_150.txt.gz
Total_Precipitation_Accumulation
0.06 0.05 0.12 0.18 0.15 0.23 0.16 0.10 0.06 0.01 0.00 0.00 0.00 0.00 0.00 0.00 0.00 0.00 0.00 0.01 0.02 0.04 0.03 0.03 0.07 0.08 0.11 0.04 0.05 0.06 0.10 0.11 0.15 0.17 0.15 0.09 0.05 0.02 0.00 0.00 0.00 0.00 0.00
0.03 0.04 0.09 0.15 0.25 0.31 0.31 0.17 0.11 0.02 0.00 0.00 0.01 0.00 0.00 0.00 0.00 0.00 0.00 0.02 0.08 0.12 0.08 0.04 0.01 0.01 0.01 0.01 0.01 0.01 0.01 0.04 0.06 0.03 0.01 0.00 0.00 0.00 0.00 0.00 0.00 0.00 0.00
0.03 0.04 0.08 0.10 0.15 0.21 0.28 0.19 0.06 0.02 0.01 0.02 0.02 0.00 0.00 0.00 0.00 0.01 0.00 0.02 0.18 0.13 0.03 0.01 0.01 0.00 0.01 0.01 0.00 0.00 0.00 0.03 0.05 0.05 0.01 0.00 0.00 0.00 0.00 0.00 0.00 0.00 0.00
0.02 0.05 0.07 0.11 0.12 0.13 0.19 0.21 0.17 0.07 0.01 0.01 0.01 0.01 0.00 0.00 0.00 0.00 0.00 0.04 0.21 0.10 0.01 0.00 0.00 0.00 0.01 0.01 0.00 0.00 0.00 0.01 0.01 0.01 0.01 0.00 0.00 0.00 0.00 0.00 0.00 0.00 0.00
0.04 0.16 0.13 0.14 0.14 0.12 0.12 0.21 0.23 0.28 0.24 0.07 0.01 0.03 0.00 0.00 0.00 0.00 0.00 0.02 0.12 0.03 0.00 0.00 0.00 0.00 0.00 0.01 0.01 0.00 0.00 0.00 0.00 0.00 0.00 0.00 0.00 0.00 0.00 0.00 0.00 0.00 0.00
0.07 0.23 0.31 0.22 0.22 0.14 0.10 0.11 0.15 0.18 0.21 0.16 0.09 0.02 0.00 0.00 0.00 0.00 0.01 0.00 0.03 0.01 0.00 0.00 0.00 0.00 0.00 0.01 0.02 0.00 0.00 0.00 0.00 0.00 0.00 0.00 0.00 0.00 0.00 0.00 0.00 0.00 0.00
0.03 0.10 0.24 0.25 0.23 0.21 0.14 0.09 0.12 0.18 0.21 0.15 0.11 0.05 0.01 0.01 0.01 0.04 0.02 0.00 0.01 0.00 0.00 0.00 0.00 0.00 0.00 0.00 0.01 0.01 0.00 0.00 0.00 0.00 0.00 0.00 0.00 0.00 0.00 0.00 0.00 0.00 0.00
0.01 0.03 0.04 0.04 0.09 0.15 0.16 0.16 0.12 0.13 0.17 0.19 0.16 0.14 0.13 0.10 0.08 0.09 0.09 0.08 0.02 0.00 0.00 0.00 0.00 0.00 0.00 0.00 0.00 0.00 0.00 0.00 0.00 0.00 0.00 0.00 0.00 0.00 0.00 0.00 0.00 0.00 0.00
0.00 0.00 0.01 0.06 0.11 0.08 0.08 0.10 0.15 0.14 0.11 0.11 0.10 0.08 0.05 0.04 0.05 0.06 0.10 0.11 0.08 0.02 0.03 0.02 0.00 0.00 0.00 0.00 0.00 0.00 0.00 0.00 0.00 0.00 0.00 0.00 0.00 0.00 0.00 0.00 0.00 0.00 0.00
0.00 0.00 0.00 0.01 0.06 0.07 0.06 0.07 0.07 0.06 0.05 0.07 0.07 0.04 0.01 0.00 0.00 0.01 0.01 0.02 0.09 0.10 0.09 0.08 0.05 0.02 0.00 0.00 0.00 0.00 0.00 0.00 0.00 0.00 0.00 0.00 0.00 0.00 0.00 0.00 0.00 0.00 0.00
0.00 0.00 0.00 0.00 0.00 0.01 0.01 0.02 0.02 0.04 0.05 0.05 0.06 0.08 0.05 0.02 0.03 0.07 0.06 0.01 0.01 0.03 0.04 0.06 0.08 0.07 0.02 0.00 0.00 0.00 0.00 0.00 0.00 0.00 0.00 0.00 0.00 0.00 0.00 0.00 0.00 0.00 0.00
0.00 0.00 0.00 0.00 0.00 0.00 0.00 0.00 0.00 0.00 0.00 0.00 0.01 0.04 0.08 0.08 0.07 0.05 0.04 0.00 0.00 0.01 0.02 0.04 0.04 0.03 0.01 0.01 0.01 0.00 0.00 0.00 0.00 0.00 0.00 0.00 0.00 0.00 0.00 0.01 0.00 0.00 0.00
0.00 0.00 0.00 0.00 0.00 0.00 0.00 0.00 0.00 0.00 0.00 0.01 0.02 0.02 0.02 0.02 0.04 0.07 0.08 0.06 0.03 0.01 0.01 0.02 0.02 0.04 0.04 0.05 0.06 0.03 0.00 0.00 0.00 0.00 0.00 0.00 0.00 0.00 0.00 0.00 0.01 0.01 0.00
0.00 0.00 0.00 0.00 0.00 0.00 0.00 0.00 0.00 0.01 0.00 0.00 0.02 0.02 0.03 0.03 0.01 0.02 0.03 0.05 0.08 0.07 0.05 0.05 0.04 0.02 0.03 0.03 0.03 0.02 0.01 0.00 0.00 0.00 0.00 0.00 0.00 0.00 0.00 0.00 0.01 0.00 0.01
0.00 0.00 0.00 0.00 0.00 0.00 0.00 0.00 0.00 0.00 0.01 0.01 0.03 0.04 0.02 0.01 0.02 0.02 0.01 0.01 0.02 0.02 0.04 0.06 0.05 0.03 0.03 0.05 0.09 0.08 0.05 0.04 0.01 0.01 0.00 0.00 0.00 0.00 0.00 0.00 0.00 0.00 0.00
0.00 0.00 0.00 0.00 0.00 0.00 0.00 0.00 0.00 0.00 0.01 0.04 0.04 0.04 0.06 0.15 0.11 0.03 0.02 0.02 0.01 0.01 0.02 0.04 0.06 0.08 0.04 0.04 0.02 0.04 0.07 0.07 0.05 0.02 0.01 0.00 0.00 0.00 0.00 0.00 0.00 0.00 0.00
0.00 0.00 0.00 0.00 0.00 0.00 0.00 0.00 0.00 0.00 0.00 0.01 0.03 0.01 0.03 0.11 0.11 0.11 0.06 0.04 0.05 0.11 0.22 0.22 0.20 0.21 0.13 0.10 0.08 0.03 0.03 0.06 0.08 0.07 0.05 0.03 0.03 0.01 0.00 0.00 0.00 0.00 0.00
0.00 0.00 0.00 0.00 0.00 0.00 0.00 0.00 0.00 0.00 0.00 0.01 0.02 0.03 0.04 0.05 0.07 0.09 0.06 0.02 0.09 0.27 0.42 0.40 0.34 0.31 0.22 0.20 0.21 0.19 0.20 0.17 0.12 0.13 0.14 0.14 0.12 0.09 0.03 0.01 0.00 0.00 0.00
0.00 0.00 0.00 0.00 0.00 0.00 0.00 0.00 0.00 0.00 0.00 0.00 0.01 0.03 0.01 0.06 0.09 0.14 0.11 0.07 0.13 0.25 0.30 0.33 0.38 0.41 0.34 0.30 0.30 0.34 0.32 0.26 0.23 0.20 0.17 0.19 0.24 0.26 0.22 0.13 0.10 0.05 0.03
0.00 0.00 0.00 0.00 0.00 0.00 0.00 0.00 0.00 0.00 0.00 0.00 0.01 0.01 0.02 0.06 0.06 0.08 0.10 0.10 0.15 0.15 0.17 0.23 0.21 0.37 0.42 0.55 0.60 0.42 0.37 0.32 0.27 0.26 0.24 0.26 0.30 0.36 0.39 0.39 0.35 0.35 0.40
0.00 0.00 0.00 0.00 0.00 0.00 0.00 0.00 0.00 0.00 0.00 0.00 0.00 0.02 0.03 0.04 0.06 0.10 0.10 0.16 0.19 0.13 0.14 0.26 0.36 0.39 0.31 0.43 0.54 0.38 0.34 0.29 0.22 0.23 0.30 0.35 0.34 0.42 0.60 0.78 0.81 0.72 0.56
0.00 0.00 0.00 0.00 0.00 0.00 0.00 0.00 0.00 0.00 0.00 0.00 0.00 0.00 0.02 0.04 0.07 0.11 0.11 0.14 0.23 0.22 0.21 0.22 0.26 0.31 0.30 0.40 0.40 0.36 0.22 0.15 0.09 0.05 0.12 0.18 0.23 0.32 0.34 0.39 0.40 0.47 0.51
0.00 0.00 0.00 0.00 0.00 0.00 0.00 0.00 0.00 0.00 0.00 0.00 0.00 0.00 0.00 0.02 0.05 0.07 0.11 0.15 0.15 0.17 0.17 0.19 0.22 0.28 0.23 0.36 0.38 0.44 0.25 0.11 0.13 0.14 0.15 0.18 0.20 0.22 0.23 0.33 0.33 0.28 0.22
0.00 0.00 0.00 0.00 0.00 0.00 0.00 0.00 0.00 0.00 0.00 0.00 0.00 0.00 0.00 0.02 0.07 0.10 0.11 0.17 0.20 0.26 0.18 0.17 0.20 0.33 0.38 0.28 0.28 0.28 0.35 0.28 0.21 0.11 0.12 0.21 0.22 0.35 0.44 0.46 0.44 0.30 0.22
0.00 0.00 0.00 0.00 0.00 0.00 0.00 0.00 0.00 0.01 0.00 0.00 0.00 0.00 0.00 0.01 0.05 0.10 0.15 0.19 0.16 0.17 0.30 0.31 0.29 0.33 0.34 0.34 0.34 0.36 0.33 0.36 0.38 0.36 0.26 0.30 0.44 0.54 0.70 0.69 0.51 0.33 0.30
0.00 0.00 0.00 0.00 0.00 0.00 0.00 0.00 0.01 0.01 0.00 0.00 0.00 0.00 0.00 0.00 0.01 0.03 0.13 0.12 0.11 0.11 0.17 0.34 0.38 0.34 0.36 0.30 0.29 0.34 0.28 0.27 0.27 0.32 0.26 0.24 0.34 0.43 0.51 0.76 1.13 0.74 0.47

GFSSE_prec_precacc24_153.txt.gz
Total_Precipitation_Accumulation
0.06 0.05 0.15 0.17 0.15 0.22 0.16 0.10 0.05 0.01 0.00 0.00 0.00 0.00 0.00 0.00 0.00 0.00 0.01 0.01 0.02 0.04 0.03 0.02 0.03 0.09 0.11 0.03 0.01 0.06 0.08 0.10 0.15 0.16 0.13 0.05 0.00 0.00 0.00 0.00 0.00 0.00 0.00
0.02 0.03 0.10 0.15 0.25 0.31 0.31 0.16 0.10 0.01 0.00 0.00 0.00 0.00 0.00 0.00 0.00 0.00 0.00 0.02 0.07 0.11 0.05 0.02 0.01 0.00 0.01 0.01 0.00 0.01 0.01 0.04 0.05 0.02 0.00 0.00 0.00 0.00 0.00 0.00 0.00 0.00 0.00
0.03 0.03 0.08 0.11 0.15 0.21 0.28 0.19 0.06 0.02 0.01 0.01 0.01 0.00 0.00 0.00 0.00 0.01 0.00 0.02 0.19 0.12 0.02 0.00 0.01 0.00 0.02 0.01 0.00 0.00 0.00 0.01 0.02 0.00 0.00 0.00 0.00 0.00 0.00 0.00 0.00 0.00 0.00
0.02 0.04 0.07 0.11 0.12 0.12 0.19 0.21 0.16 0.07 0.01 0.00 0.00 0.00 0.00 0.00 0.00 0.00 0.00 0.04 0.22 0.11 0.00 0.00 0.00 0.00 0.01 0.02 0.00 0.00 0.00 0.00 0.00 0.00 0.00 0.00 0.00 0.00 0.00 0.00 0.00 0.00 0.00
0.04 0.15 0.12 0.13 0.13 0.11 0.11 0.19 0.22 0.27 0.24 0.08 0.01 0.02 0.00 0.00 0.00 0.00 0.00 0.02 0.12 0.03 0.00 0.00 0.00 0.00 0.00 0.02 0.01 0.00 0.00 0.00 0.00 0.00 0.00 0.00 0.00 0.00 0.00 0.00 0.00 0.00 0.00
0.07 0.19 0.28 0.19 0.17 0.11 0.09 0.11 0.15 0.16 0.20 0.16 0.10 0.02 0.00 0.00 0.00 0.00 0.00 0.00 0.03 0.01 0.00 0.00 0.00 0.00 0.00 0.01 0.02 0.00 0.00 0.00 0.00 0.00 0.00 0.00 0.00 0.00 0.00 0.00 0.00 0.00 0.00
0.03 0.07 0.16 0.17 0.18 0.16 0.10 0.08 0.11 0.16 0.20 0.15 0.11 0.05 0.01 0.00 0.00 0.01 0.01 0.00 0.00 0.00 0.00 0.00 0.00 0.00 0.00 0.00 0.01 0.02 0.00 0.00 0.00 0.00 0.00 0.00 0.00 0.00 0.00 0.00 0.00 0.00 0.00
0.01 0.03 0.03 0.02 0.05 0.10 0.14 0.13 0.11 0.11 0.17 0.19 0.16 0.14 0.13 0.09 0.08 0.09 0.06 0.05 0.01 0.00 0.00 0.00 0.00 0.00 0.00 0.00 0.00 0.01 0.00 0.00 0.00 0.00 0.00 0.00 0.00 0.00 0.00 0.00 0.00 0.00 0.00
0.00 0.00 0.01 0.06 0.10 0.08 0.07 0.09 0.15 0.14 0.11 0.11 0.10 0.08 0.05 0.05 0.05 0.06 0.09 0.08 0.06 0.02 0.03 0.02 0.00 0.00 0.00 0.00 0.00 0.00 0.00 0.00 0.00 0.00 0.00 0.00 0.00 0.00 0.00 0.00 0.00 0.00 0.00
0.00 0.00 0.00 0.01 0.06 0.07 0.06 0.07 0.07 0.06 0.05 0.07 0.07 0.04 0.01 0.00 0.00 0.01 0.01 0.01 0.09 0.11 0.10 0.08 0.05 0.02 0.00 0.00 0.00 0.00 0.00 0.00 0.00 0.00 0.00 0.00 0.00 0.00 0.00 0.00 0.00 0.00 0.00
0.00 0.00 0.00 0.00 0.00 0.01 0.00 0.02 0.02 0.04 0.05 0.05 0.06 0.08 0.05 0.02 0.03 0.07 0.06 0.01 0.01 0.05 0.08 0.10 0.11 0.08 0.02 0.00 0.00 0.00 0.00 0.00 0.00 0.00 0.00 0.00 0.00 0.00 0.00 0.00 0.00 0.00 0.00
0.00 0.00 0.00 0.00 0.00 0.00 0.00 0.00 0.00 0.00 0.00 0.00 0.01 0.04 0.08 0.08 0.07 0.05 0.04 0.00 0.00 0.01 0.04 0.08 0.09 0.07 0.03 0.01 0.01 0.00 0.00 0.00 0.00 0.00 0.00 0.00 0.00 0.00 0.00 0.01 0.00 0.00 0.00
0.00 0.00 0.00 0.00 0.00 0.00 0.00 0.00 0.00 0.00 0.00 0.01 0.02 0.02 0.02 0.02 0.04 0.07 0.08 0.06 0.03 0.02 0.01 0.02 0.03 0.05 0.04 0.06 0.06 0.03 0.00 0.00 0.00 0.00 0.00 0.00 0.00 0.00 0.00 0.00 0.01 0.01 0.00
0.00 0.00 0.00 0.00 0.00 0.00 0.00 0.00 0.00 0.00 0.00 0.00 0.02 0.02 0.03 0.03 0.01 0.02 0.03 0.05 0.08 0.07 0.05 0.06 0.05 0.03 0.03 0.05 0.05 0.02 0.02 0.01 0.00 0.00 0.00 0.00 0.00 0.00 0.00 0.00 0.01 0.00 0.01
0.00 0.00 0.00 0.00 0.00 0.00 0.00 0.00 0.00 0.00 0.00 0.00 0.01 0.02 0.02 0.01 0.01 0.01 0.01 0.01 0.02 0.02 0.04 0.06 0.05 0.03 0.03 0.06 0.11 0.09 0.06 0.06 0.03 0.03 0.00 0.00 0.00 0.00 0.00 0.00 0.00 0.00 0.00
0.00 0.00 0.00 0.00 0.00 0.00 0.00 0.00 0.00 0.00 0.00 0.00 0.00 0.01 0.04 0.11 0.09 0.02 0.01 0.01 0.01 0.01 0.02 0.04 0.06 0.08 0.04 0.04 0.03 0.05 0.08 0.10 0.10 0.07 0.06 0.06 0.04 0.01 0.00 0.00 0.00 0.00 0.00
0.00 0.00 0.00 0.00 0.00 0.00 0.00 0.00 0.00 0.00 0.00 0.00 0.00 0.00 0.01 0.05 0.08 0.10 0.05 0.03 0.04 0.10 0.20 0.21 0.20 0.21 0.13 0.10 0.08 0.03 0.03 0.07 0.10 0.10 0.10 0.11 0.14 0.09 0.05 0.01 0.00 0.00 0.00
0.00 0.00 0.00 0.00 0.00 0.00 0.00 0.00 0.00 0.00 0.00 0.00 0.00 0.00 0.01 0.04 0.06 0.08 0.06 0.02 0.05 0.16 0.31 0.35 0.31 0.29 0.22 0.20 0.21 0.19 0.20 0.17 0.12 0.14 0.16 0.17 0.18 0.16 0.12 0.08 0.03 0.01 0.02
0.00 0.00 0.00 0.00 0.00 0.00 0.00 0.00 0.00 0.00 0.00 0.00 0.00 0.00 0.00 0.00 0.05 0.10 0.11 0.07 0.11 0.18 0.22 0.26 0.28 0.28 0.26 0.28 0.30 0.34 0.32 0.26 0.23 0.21 0.17 0.21 0.27 0.33 0.32 0.23 0.20 0.14 0.08
0.00 0.00 0.00 0.00 0.00 0.00 0.00 0.00 0.00 0.00 0.00 0.00 0.00 0.00 0.00 0.00 0.02 0.06 0.08 0.09 0.15 0.15 0.14 0.14 0.13 0.21 0.31 0.47 0.57 0.42 0.37 0.32 0.27 0.26 0.25 0.26 0.30 0.37 0.41 0.45 0.45 0.49 0.55
0.00 0.00 0.00 0.00 0.00 0.00 0.00 0.00 0.00 0.00 0.00 0.00 0.00 0.00 0.00 0.00 0.01 0.05 0.07 0.10 0.12 0.08 0.10 0.21 0.30 0.28 0.25 0.38 0.49 0.37 0.33 0.28 0.22 0.23 0.30 0.35 0.34 0.42 0.61 0.81 0.87 0.78 0.65
0.00 0.00 0.00 0.00 0.00 0.00 0.00 0.00 0.00 0.00 0.00 0.00 0.00 0.00 0.00 0.00 0.01 0.02 0.04 0.07 0.13 0.15 0.18 0.21 0.19 0.26 0.27 0.35 0.37 0.34 0.21 0.14 0.08 0.05 0.13 0.19 0.25 0.36 0.38 0.42 0.45 0.54 0.58
0.00 0.00 0.00 0.00 0.00 0.00 0.00 0.00 0.00 0.00 0.00 0.00 0.00 0.00 0.00 0.00 0.00 0.01 0.06 0.09 0.11 0.14 0.16 0.19 0.21 0.26 0.23 0.36 0.36 0.41 0.26 0.11 0.13 0.14 0.15 0.18 0.21 0.25 0.30 0.45 0.45 0.38 0.28
0.00 0.00 0.00 0.00 0.00 0.00 0.00 0.00 0.00 0.00 0.00 0.00 0.00 0.00 0.00 0.00 0.00 0.01 0.05 0.10 0.15 0.18 0.16 0.17 0.19 0.33 0.38 0.28 0.28 0.27 0.35 0.27 0.21 0.11 0.12 0.21 0.22 0.35 0.46 0.50 0.50 0.37 0.29
0.00 0.00 0.00 0.00 0.00 0.00 0.00 0.00 0.00 0.01 0.00 0.00 0.00 0.00 0.00 0.00 0.00 0.00 0.01 0.05 0.07 0.12 0.24 0.29 0.29 0.32 0.34 0.33 0.34 0.36 0.32 0.35 0.36 0.34 0.23 0.29 0.44 0.55 0.70 0.70 0.53 0.39 0.58
0.00 0.00 0.00 0.00 0.00 0.00 0.00 0.00 0.01 0.01 0.00 0.00 0.00 0.00 0.00 0.00 0.00 0.00 0.01 0.03 0.05 0.08 0.14 0.31 0.38 0.34 0.35 0.30 0.29 0.33 0.28 0.27 0.26 0.29 0.19 0.16 0.28 0.41 0.52 0.77 1.23 1.21 1.16